[{"header": {"dx": 0.06612293990616946, "dy": 0.0552356325346848, "nx": 98, "ny": 59, "la1": 35.046912555036876, "la2": 31.78801023549047, "lo1": -121.43107172385933, "lo2": -114.95102361305473, "refTime": "2026040706", "parameterCategory": 1, "parameterNumber": 2}, "data": [7.26, 7.26, 7.26, 7.56, 7.56, 7.27, 7.58, 6.93, 6.95, 6.31, 5.64, 4.29, 2.23, 0.0, 1.79, 0.89, 0.45, -0.6, -1.24, -1.9, -1.24, -0.6, 0.0, 2.68, 3.13, 3.9, 4.38, 4.92, 4.47, 5.26, 6.23, 4.98, 4.6, 4.0, 4.24, 4.43, 4.47, 4.92, 4.47, 3.58, 3.53, 4.15, 4.43, 5.15, 7.81, 10.28, 12.87, 14.2, 14.5, 8.32, 3.79, 1.6, 2.35, 3.4, 3.45, 5.36, 6.18, 7.41, 7.41, 7.81, 7.81, 7.28, 6.18, 5.06, 4.74, 5.49, 6.18, 7.2, 8.4, 10.0, 10.96, 10.85, 10.08, 9.85, 9.33, 8.99, 9.77, 11.03, 12.74, 12.41, 10.23, 6.94, -5.81, -4.47, -3.58, -1.4, -0.0, 1.2, 3.47, 4.87, 7.76, 9.08, 10.15, 10.8, 11.34, 11.62, 10.1, 4.87, 7.26, 7.26, 7.56, 7.56, 7.27, 7.27, 6.98, 6.93, 6.64, 6.3, 5.68, 3.91, 2.41, 1.49, 2.53, 0.0, 0.0, 0.0, -0.71, -1.61, -1.4, -0.65, 0.0, 2.8, 3.58, 4.38, 3.95, 3.51, 3.13, 3.39, 3.35, 3.47, 3.04, 3.04, 3.07, 3.58, 4.47, 4.92, 4.87, 4.43, 3.82, 5.01, 5.72, 6.57, 8.56, 11.59, 13.7, 14.03, 11.49, 4.92, 0.82, 1.52, 2.35, 3.09, 3.69, 5.1, 6.32, 7.41, 7.76, 8.06, 8.18, 7.15, 5.69, 4.65, 5.06, 5.77, 6.79, 7.15, 7.81, 8.67, 10.23, 10.55, 10.32, 9.85, 8.37, 8.0, 9.36, 11.03, 12.74, 12.41, 10.23, 6.94, -5.81, -4.47, -3.58, -1.4, -0.0, 1.2, 3.47, 4.87, 7.76, 9.08, 10.15, 10.8, 11.34, 11.62, 10.1, 4.87, 7.26, 7.56, 7.27, 7.27, 7.27, 7.27, 6.63, 6.93, 6.27, 6.3, 5.36, 5.03, 2.51, 1.74, 1.9, 2.0, 1.6, 0.8, 0.0, -0.65, -1.13, -0.79, 0.0, 0.0, 2.53, 4.15, 4.02, 3.13, 2.68, 2.4, 2.68, 1.58, 0.0, 1.9, 2.54, 3.47, 4.41, 5.31, 6.07, 5.86, 5.36, 6.58, 7.79, 8.74, 10.1, 11.91, 13.07, 10.98, 4.6, 1.98, 1.52, 2.2, 2.64, 3.55, 3.79, 5.24, 6.01, 7.41, 7.76, 8.43, 8.43, 6.79, 5.37, 5.24, 4.83, 5.59, 6.64, 7.68, 8.38, 8.65, 9.92, 11.2, 11.37, 10.35, 7.74, 6.88, 8.63, 12.37, 13.69, 13.38, 10.25, 7.74, 6.8, -6.26, -4.02, -0.0, 0.76, 2.21, 3.97, 6.55, 10.01, 10.4, 10.23, 9.9, 10.23, 9.74, 6.11, 3.09, 6.61, 6.9, 6.9, 6.9, 6.9, 6.63, 6.63, 6.35, 6.27, 6.0, 5.63, 5.36, 3.63, 1.84, 1.6, 1.74, 2.21, 1.58, 1.2, 0.0, -0.61, -0.61, -0.79, 0.0, 0.66, 1.6, 2.8, 3.58, 3.58, 3.13, 1.9, -0.7, -1.41, -0.98, 1.13, 3.16, 4.65, 6.8, 7.44, 7.64, 8.85, 9.31, 9.12, 8.61, 9.12, 9.95, 8.46, 5.37, 4.02, 3.33, 2.8, 2.47, 3.72, 3.55, 4.42, 5.1, 6.32, 7.06, 8.42, 8.82, 8.4, 6.55, 4.95, 4.03, 4.96, 5.76, 6.53, 6.92, 7.85, 9.2, 10.9, 12.86, 13.52, 11.79, 8.73, 5.81, 6.66, 11.62, 15.12, 13.41, 8.44, 5.51, 6.4, 5.51, -3.58, -1.6, 2.53, 3.97, 6.22, 10.25, 11.62, 10.4, 9.84, 8.93, 7.6, 4.3, 3.58, 2.91, 6.61, 6.9, 6.9, 6.9, 6.63, 6.63, 6.63, 6.35, 5.98, 6.0, 5.34, 5.36, 3.22, 2.15, 2.3, 2.53, 1.49, 2.41, 1.4, 0.0, -0.7, -0.76, -0.65, 0.0, 0.0, 0.0, 0.76, 2.21, 2.8, 3.51, 2.8, 0.0, -2.4, -2.35, 0.0, 2.39, 3.45, 6.2, 8.29, 9.22, 8.46, 7.82, 6.39, 6.25, 7.73, 8.14, 6.65, 6.57, 5.43, 3.9, 3.11, 3.33, 3.72, 3.77, 4.26, 5.89, 6.73, 7.51, 8.42, 9.03, 8.3, 5.15, 3.55, 3.91, 4.83, 6.14, 6.53, 6.24, 6.79, 8.53, 11.28, 13.83, 14.54, 13.59, 11.68, 8.05, 4.4, 7.71, 11.15, 12.52, 4.87, 3.74, 5.59, 7.06, 4.02, 3.58, 4.02, 7.92, 11.03, 12.29, 11.34, 9.74, 9.27, 5.05, 4.02, 2.6, 3.97, 3.39, 6.61, 6.61, 6.9, 6.9, 6.63, 6.63, 6.63, 5.98, 5.98, 5.32, 5.34, 4.69, 3.22, 2.68, 1.6, 2.4, 1.7, 2.76, 2.99, 0.89, -1.96, -2.29, -1.49, -1.33, -0.7, 0.0, 0.0, 0.79, 1.49, 2.41, 3.45, 2.84, 0.0, -0.85, 0.0, 1.39, 2.99, 6.31, 8.61, 6.9, 4.4, 3.0, 3.49, 7.01, 10.02, 9.81, 8.36, 6.64, 5.43, 4.43, 3.63, 4.01, 4.16, 4.16, 4.42, 6.11, 6.79, 7.2, 8.4, 9.49, 6.94, 3.79, 3.2, 3.27, 4.6, 6.14, 6.53, 5.89, 5.59, 8.03, 11.2, 12.56, 12.86, 13.83, 14.58, 13.44, 8.94, 4.24, 4.47, 9.26, 4.24, 4.02, 5.31, 7.56, 4.85, 2.84, 5.09, 9.9, 12.47, 11.5, 9.52, 10.87, 7.69, 2.84, -0.65, 2.4, 4.47, 3.53, 6.61, 6.61, 6.61, 6.9, 6.63, 6.63, 6.63, 5.7, 5.7, 5.32, 4.66, 4.24, 3.22, 2.15, 3.22, 2.53, 2.6, 3.33, 3.55, 3.0, 0.0, -1.35, -2.82, -2.4, -1.01, 0.0, 0.0, 0.0, 0.0, 0.82, 0.87, 2.53, 3.39, 2.99, 1.6, 1.45, 2.28, 5.18, 6.45, 3.69, 1.7, 1.84, 4.0, 7.36, 9.77, 4.92, 5.82, 6.79, 6.44, 5.59, 4.19, 3.64, 4.65, 4.65, 5.06, 5.46, 5.82, 6.07, 7.35, 8.4, 6.0, 3.48, 2.8, 2.64, 3.55, 5.36, 7.4, 7.28, 6.32, 8.17, 10.18, 11.03, 11.37, 13.92, 14.87, 15.31, 13.62, 8.29, 5.2, 9.54, 7.55, 6.45, 6.44, 7.03, 6.64, 6.01, 6.79, 9.56, 11.18, 10.9, 9.49, 9.21, 4.8, -0.57, 0.51, 3.53, 4.47, 3.95, 6.61, 6.61, 6.61, 6.61, 6.34, 6.34, 5.95, 5.95, 5.7, 5.29, 4.63, 3.49, 2.64, 2.2, 4.19, 3.22, 3.64, 3.9, 3.22, 3.79, 3.51, 3.07, 2.4, 0.0, -0.8, -1.04, 0.0, -1.04, -1.95, -1.96, -1.14, 0.0, 1.73, 5.36, 5.06, 3.95, 2.95, 3.85, 5.21, 3.91, 1.4, 1.33, 3.0, 3.22, 1.58, 0.7, 2.2, 5.43, 6.06, 5.69, 3.79, 3.64, 4.65, 5.06, 5.06, 5.43, 5.72, 6.64, 7.47, 7.47, 5.86, 2.84, 2.07, 1.99, 2.99, 4.58, 7.81, 8.37, 6.61, 7.06, 8.9, 10.24, 11.18, 12.07, 13.41, 12.52, 12.3, 11.09, 11.5, 13.96, 15.58, 11.98, 8.24, 6.98, 6.98, 7.61, 7.59, 8.22, 9.27, 9.57, 8.59, 3.79, -0.0, 0.66, 3.35, 4.88, 4.92, 3.74, 6.61, 6.61, 6.61, 6.61, 6.61, 6.34, 5.95, 5.95, 5.95, 5.26, 4.57, 4.05, 3.25, 2.49, 3.32, 3.09, 3.45, 3.09, 2.2, 2.5, 3.13, 5.26, 6.64, 4.41, 2.0, 0.88, 0.0, -2.12, -4.21, -3.35, -1.28, 0.0, 0.0, 2.28, 3.32, 4.07, 4.36, 4.36, 1.83, 0.71, 0.89, 0.89, 0.63, 0.89, -0.0, 0.61, 1.49, 2.53, 3.43, 4.56, 4.21, 3.79, 4.56, 5.37, 5.72, 6.06, 7.07, 8.0, 8.4, 7.98, 6.79, 4.22, 2.68, 2.2, 1.99, 4.58, 8.21, 8.48, 5.73, 5.81, 7.15, 8.94, 11.18, 12.05, 11.15, 9.83, 8.91, 10.16, 12.87, 15.14, 16.47, 14.3, 9.72, 6.0, 5.59, 6.95, 7.27, 7.64, 7.61, 7.95, 5.05, 4.4, -0.0, 2.4, 4.43, 5.81, 4.92, 3.32, 6.61, 6.61, 6.61, 6.61, 6.61, 6.61, 6.2, 5.92, 5.92, 5.67, 5.64, 5.83, 5.4, 3.44, 2.53, 2.37, 3.34, 2.54, 1.13, 1.2, 2.33, 4.05, 6.64, 6.28, 4.46, 3.2, 0.73, -1.41, -5.21, -3.21, 0.0, 1.04, 0.0, 0.0, 0.0, 2.23, 4.44, 1.4, 0.89, 0.45, 1.34, 1.79, 1.34, -0.95, -0.6, -0.0, -0.0, 0.57, 1.13, 1.47, 3.2, 4.42, 5.37, 5.72, 6.06, 7.06, 8.24, 8.67, 9.33, 9.11, 7.89, 5.58, 4.14, 1.98, 1.84, 4.16, 8.4, 8.55, 5.09, 3.58, 5.81, 9.36, 11.6, 11.6, 10.73, 9.36, 8.36, 8.82, 11.09, 13.84, 16.09, 16.54, 13.39, 7.48, 3.38, 3.26, 4.94, 6.01, 6.01, 4.41, 4.6, 4.47, 3.04, 3.32, 4.73, 4.88, 4.85, 3.32, 6.61, 6.61, 6.61, 6.61, 6.61, 6.61, 6.33, 5.92, 6.16, 6.31, 6.29, 6.5, 6.92, 5.83, 4.01, 3.87, 4.13, 2.98, 1.79, 1.81, 0.79, 1.73, 3.59, 4.27, 4.12, 2.09, 0.73, 0.0, -0.66, -0.99, 0.0, 0.0, -0.6, -0.95, 0.0, 1.0, 0.73, -1.79, -2.24, 0.0, 0.0, -0.8, 1.34, 1.34, -1.79, -1.26, -0.57, -0.0, 0.61, 0.59, 2.07, 4.19, 4.84, 5.69, 6.64, 7.67, 9.49, 10.49, 10.62, 10.28, 6.98, 5.15, 2.83, 0.84, 1.75, 5.59, 7.69, 8.24, 6.8, 5.29, 6.26, 8.84, 10.19, 9.81, 9.81, 10.19, 9.15, 7.6, 9.08, 11.62, 13.88, 15.5, 15.2, 12.96, 5.59, 1.7, 2.11, 3.64, 4.07, 3.48, 2.79, 2.51, 2.79, 3.16, 3.72, 5.09, 3.58, 3.07, 6.2, 6.61, 6.61, 6.61, 6.61, 6.33, 6.58, 6.58, 6.31, 6.56, 6.53, 6.92, 7.32, 7.59, 7.33, 6.34, 5.34, 4.57, 4.81, 4.85, 4.24, 2.3, 1.09, 1.02, 0.0, 0.0, 0.0, 0.45, 0.45, 0.0, -0.71, -1.34, -1.86, -1.26, 0.89, 0.0, -1.88, -2.6, -2.4, -1.88, -1.24, -1.6, -0.0, -0.0, -0.8, -1.2, -0.0, 0.8, 1.9, 1.9, 2.68, 3.13, 3.58, 4.47, 5.32, 7.45, 9.81, 11.15, 11.62, 8.91, 4.89, 2.83, 0.94, -0.0, 2.33, 5.82, 7.68, 8.93, 8.8, 8.19, 7.57, 8.05, 8.05, 7.56, 7.45, 9.11, 9.33, 8.0, 8.55, 10.15, 11.2, 11.45, 12.42, 14.75, 10.7, 7.06, 3.68, 1.94, 2.73, 2.73, 1.94, 1.73, 1.76, 2.0, 2.79, 3.58, 2.24, 3.47, 6.2, 6.61, 6.61, 6.61, 6.33, 6.58, 6.58, 6.58, 6.56, 6.8, 6.94, 7.19, 7.57, 8.22, 8.87, 7.86, 6.28, 6.28, 6.95, 7.9, 8.73, 8.68, 7.43, 5.32, 4.88, 4.44, 3.98, 2.17, -0.0, -1.86, -1.79, -1.79, -1.7, -1.79, -0.89, -1.79, -2.24, -2.6, -3.07, -3.45, -2.91, -2.24, -1.49, -0.99, -0.71, -0.71, -0.0, 1.34, 1.58, 2.21, 1.84, 1.84, 2.86, 4.71, 6.32, 6.64, 6.99, 9.33, 10.05, 4.02, -0.0, -0.0, -0.0, -0.0, 1.95, 4.74, 5.15, 7.92, 9.74, 9.49, 8.95, 8.72, 8.14, 8.05, 8.45, 8.91, 8.67, 7.6, 7.28, 6.96, 5.69, 6.07, 10.38, 12.87, 12.52, 12.52, 10.56, 4.58, 2.0, 2.0, 1.27, 0.0, -0.66, 0.0, 0.0, 0.54, 2.53, 2.53, 6.2, 6.2, 6.61, 6.33, 6.58, 6.58, 6.58, 6.56, 6.56, 7.22, 6.94, 7.19, 7.85, 8.22, 8.87, 8.53, 8.15, 7.51, 7.51, 9.01, 10.16, 11.39, 11.95, 11.62, 11.18, 10.28, 8.94, 6.23, 1.73, -0.89, -2.68, -1.79, -1.79, -1.7, -1.34, -1.79, -2.24, -2.6, -2.91, -3.32, -3.09, -3.13, -2.68, -2.0, -1.4, -1.0, -1.34, 0.0, 1.4, 1.49, 1.66, 2.99, 5.43, 5.43, 3.99, 2.83, 1.96, 4.89, 8.4, 1.2, -2.15, -2.0, -1.14, -0.0, 4.92, 4.02, 3.58, 4.47, 7.98, 7.03, 8.03, 8.68, 8.95, 8.9, 8.9, 8.56, 6.02, 3.97, 3.97, 4.41, 4.0, 4.12, 8.18, 10.8, 12.06, 13.21, 12.87, 9.85, 2.99, 1.55, 0.98, -1.4, -1.61, -0.7, -0.61, -0.76, -4.02, -0.0, 6.2, 6.61, 6.61, 6.33, 6.58, 6.58, 6.84, 6.96, 6.96, 7.22, 7.22, 7.59, 7.59, 8.23, 8.59, 8.87, 9.13, 8.78, 8.38, 9.21, 10.55, 11.92, 12.98, 13.54, 13.21, 12.84, 11.49, 8.79, 5.57, 2.54, 0.89, -1.34, -1.34, -1.34, -1.79, -2.24, -1.79, -1.2, -1.79, -2.68, -3.13, -2.68, -3.13, -2.0, -2.21, -1.4, -1.9, -1.34, 0.0, 0.71, 1.49, 4.19, 2.84, 2.12, 0.95, 0.65, 0.0, 3.4, 5.36, 1.34, -2.23, -2.54, -1.58, -1.79, 0.0, 0.0, 2.15, 3.22, 2.24, 2.68, 5.06, 8.95, 10.45, 10.28, 8.49, 4.47, 3.32, 3.32, 4.38, 5.26, 6.26, 6.23, 6.0, 7.06, 6.8, 11.34, 12.8, 10.96, 8.06, 6.13, 4.74, 0.0, -1.2, -0.85, 0.0, -0.0, -0.0, -0.0, 6.61, 6.61, 6.61, 6.33, 6.58, 6.58, 6.84, 6.96, 6.96, 7.22, 7.22, 7.6, 7.59, 7.96, 8.59, 9.19, 9.48, 9.42, 9.02, 9.58, 10.55, 11.82, 13.02, 13.84, 14.0, 13.74, 12.47, 11.57, 9.77, 7.4, 5.51, 3.07, 1.26, 0.89, 2.24, 1.79, 1.34, -0.89, -1.34, -1.79, -2.24, -2.24, -2.4, -1.9, -2.53, -2.84, -2.84, -2.21, -1.26, 0.45, 0.63, 1.6, 1.34, 0.8, -0.0, 1.34, 1.6, 2.76, 2.23, 0.89, 1.34, 1.34, -0.0, -0.0, 0.45, 0.65, 0.57, 0.0, -0.0, 1.98, 4.66, 8.49, 10.73, 10.28, 4.92, 3.07, 2.79, 3.63, 3.79, 4.11, 5.72, 7.06, 7.6, 7.6, 6.21, 3.82, 8.63, 9.33, 8.36, 7.54, 8.41, 0.0, -0.8, 2.4, 3.58, 2.98, 2.53, 2.53, 6.61, 6.61, 6.61, 6.58, 6.58, 6.58, 7.24, 6.96, 6.96, 7.22, 7.22, 7.6, 7.6, 8.24, 8.24, 8.87, 9.48, 9.72, 9.94, 9.76, 10.55, 11.82, 13.02, 13.41, 14.19, 14.74, 14.74, 14.26, 13.3, 11.84, 9.86, 7.51, 4.9, 1.58, 0.0, 1.34, -0.95, -1.34, -1.2, -1.34, -3.13, -2.24, -1.9, -1.9, -2.53, -2.53, -1.6, -1.4, -1.4, -1.4, -0.0, -0.0, -0.0, -0.0, 2.68, 3.13, 4.92, 3.58, -0.0, -0.0, 3.58, 3.13, 1.9, -0.0, -0.0, 1.34, 0.0, -2.21, -0.8, 2.54, 6.61, 8.14, 9.2, 6.57, 2.24, -0.0, 1.84, 3.33, 3.47, 3.91, 4.19, 6.52, 7.97, 8.05, 8.49, 5.29, 3.14, 3.97, 4.87, 8.01, 8.63, 3.22, -0.99, 1.9, 3.58, 3.32, 3.2, 3.2, 6.61, 6.61, 6.61, 6.58, 6.58, 6.97, 7.24, 6.96, 6.96, 6.96, 7.22, 7.6, 7.6, 7.96, 8.24, 8.87, 9.48, 9.72, 9.59, 9.92, 11.31, 12.33, 12.53, 12.64, 13.85, 15.19, 16.05, 15.54, 15.01, 13.84, 12.04, 10.11, 8.0, 5.21, 2.79, 0.95, -0.45, -1.34, -1.79, -2.24, -2.68, -2.68, -2.54, -2.0, -1.2, -1.4, -0.0, -0.0, -0.0, -0.0, -0.0, -0.0, -0.0, -0.0, -0.0, 2.84, 3.16, -0.0, 4.11, 3.79, 4.4, 4.0, 2.84, -0.0, -1.41, -0.0, 1.79, 0.0, 0.0, 1.96, 5.44, 4.56, 4.01, 0.7, -2.24, -1.88, -0.0, 2.98, 4.43, 4.54, 4.6, 6.26, 7.08, 9.11, 7.63, 4.24, 3.45, 3.04, 3.82, 7.06, 9.11, 6.02, 1.13, 0.0, 3.13, 3.51, 3.07, 3.07, 6.61, 6.61, 6.61, 6.58, 6.58, 6.97, 7.24, 7.24, 6.96, 6.96, 7.33, 7.6, 7.6, 7.96, 7.6, 7.73, 7.95, 8.53, 8.73, 10.16, 12.33, 13.31, 11.88, 10.55, 10.85, 14.31, 13.21, 13.91, 13.11, 11.99, 11.06, 10.13, 8.93, 7.15, 5.29, 3.49, 3.2, 3.58, 2.68, 2.68, 2.68, 2.68, -0.0, -0.0, -0.0, -0.0, -0.0, -0.0, -0.0, -0.0, -0.0, -0.0, -0.0, -0.0, -0.0, 1.84, 3.79, 5.81, 5.81, 5.36, 4.47, 4.02, 2.84, -0.54, -2.3, -1.4, -0.0, 2.15, 3.43, 4.47, 4.74, 7.4, 10.41, 10.28, 5.36, -1.58, 1.58, 3.47, 5.73, 5.73, 5.51, 6.8, 8.05, 8.3, 8.06, 7.06, 5.3, 2.51, 4.46, 3.49, 4.0, 5.32, 3.32, 0.71, 2.21, 3.58, 3.13, 3.13, 6.61, 6.61, 6.61, 6.87, 6.97, 6.97, 6.97, 7.24, 7.24, 6.96, 7.33, 7.6, 7.6, 7.96, 8.24, 7.95, 7.61, 6.98, 6.88, 8.3, 11.53, 13.48, 12.09, 10.18, 10.43, 11.88, 12.62, 11.93, 12.16, 10.35, 8.82, 8.19, 7.85, 6.87, 6.51, 5.36, 5.2, 5.81, 5.64, 4.82, 4.41, 4.3, 3.87, 3.82, 2.86, 1.8, -0.0, -0.0, -0.0, -0.0, -0.0, -0.0, -0.0, -0.0, -0.0, 1.27, 5.95, 4.66, 3.58, 4.0, 3.2, 3.13, -0.0, -2.23, -1.74, -1.49, -1.58, 1.6, 3.58, 5.75, 8.14, 12.09, 16.66, 18.68, 15.17, 7.81, 4.14, 6.01, 6.4, 5.94, 6.0, 6.82, 7.06, 6.7, 6.7, 5.06, 2.53, 1.9, 2.97, 4.02, 2.98, 4.11, 4.0, 0.54, 0.0, 2.97, 3.13, 3.13, 6.61, 6.61, 6.61, 7.26, 7.26, 6.97, 6.97, 7.24, 7.24, 7.24, 7.33, 7.33, 7.6, 7.96, 8.24, 7.95, 7.61, 7.33, 7.6, 8.56, 11.76, 11.99, 11.7, 11.08, 11.7, 12.01, 11.36, 11.05, 9.77, 7.27, 6.32, 6.01, 6.28, 6.57, 6.15, 5.49, 5.2, 5.75, 6.26, 6.02, 5.59, 5.34, 5.86, 6.02, 4.8, 3.48, 1.6, 1.6, -0.0, -0.0, -0.0, -1.27, -1.41, -0.0, -0.0, 1.98, 4.43, 4.43, 3.48, 0.0, 0.0, -1.79, -2.53, -2.53, -2.0, -2.6, -1.9, -0.0, 1.49, 4.03, 6.88, 10.55, 13.89, 16.34, 15.18, 10.22, 6.79, 7.19, 5.7, 5.37, 5.58, 5.82, 6.82, 6.4, 5.82, 3.45, 2.8, 1.33, 4.24, 3.74, 3.32, 3.72, 3.07, 0.53, 0.0, 0.0, 3.58, 3.58, 6.98, 6.98, 6.98, 6.98, 7.26, 7.26, 6.97, 6.97, 7.24, 7.61, 7.61, 7.61, 7.6, 7.96, 7.96, 8.24, 8.24, 8.24, 9.5, 11.1, 11.7, 10.43, 9.82, 10.75, 11.99, 13.09, 12.37, 10.7, 7.72, 6.07, 5.58, 4.75, 5.05, 5.29, 5.49, 5.37, 5.31, 4.8, 5.81, 6.21, 5.86, 5.75, 5.75, 5.75, 5.2, 3.83, 4.0, 2.53, -0.0, -0.0, -0.0, -0.0, -0.0, -0.0, -0.0, 1.84, 1.14, -0.0, -6.26, -2.0, -2.12, -2.12, -1.86, -1.26, -2.4, -2.21, -2.53, -1.74, -0.0, -0.0, 1.83, 6.11, 9.9, 10.35, 4.6, 5.63, 6.79, 6.89, 5.67, 4.25, 3.99, 4.74, 5.58, 5.75, 6.45, 4.85, 3.95, 3.51, 4.3, 4.92, 4.11, 3.72, 2.79, 0.61, 0.0, 0.0, 3.58, 3.58, 6.98, 6.98, 6.98, 6.98, 7.26, 7.26, 7.26, 6.97, 7.24, 7.61, 7.61, 7.61, 7.89, 8.24, 8.24, 8.24, 8.58, 9.21, 10.45, 11.99, 12.51, 10.8, 9.59, 10.01, 11.8, 12.93, 13.48, 11.92, 10.29, 9.15, 7.76, 6.36, 5.2, 4.55, 4.4, 4.8, 5.09, 4.89, 4.92, 5.77, 5.86, 5.6, 5.43, 5.75, 4.8, 4.22, 4.4, 2.53, -0.0, -0.0, -0.0, -0.0, -0.0, -0.0, -0.0, -0.0, -0.0, -0.96, -4.8, -3.58, -2.68, -2.12, -1.26, -0.71, -1.13, -1.41, -1.13, -1.0, -1.58, -0.8, -0.63, 1.34, 4.43, 2.24, 0.0, 2.06, 4.95, 5.98, 5.67, 4.38, 3.51, 3.99, 3.47, 3.79, 4.84, 4.4, 4.24, 3.72, 6.35, 7.32, 5.2, 3.72, 2.51, 0.59, 0.0, 1.6, 2.21, 2.21, 6.98, 6.98, 6.98, 6.98, 6.98, 7.26, 7.26, 7.26, 6.97, 7.61, 7.61, 7.61, 7.95, 7.95, 8.24, 8.58, 9.19, 9.82, 10.43, 11.92, 12.37, 11.99, 10.96, 10.96, 11.34, 12.16, 12.56, 12.51, 12.24, 11.51, 10.29, 8.6, 7.33, 6.36, 6.07, 6.07, 5.77, 5.33, 5.36, 5.33, 5.51, 5.94, 6.0, 5.43, 5.34, 4.4, 5.09, 4.0, 3.2, 1.8, 1.8, 1.8, -0.0, -0.0, -0.0, -0.0, -0.0, -1.0, -2.68, -4.02, -2.97, -2.24, -1.6, -0.99, -2.48, -1.19, -0.0, -0.0, -0.0, 1.34, 0.0, 4.98, 5.64, 4.47, 0.0, 0.0, 2.17, 4.65, 5.92, 4.81, 3.04, 2.83, 2.69, 3.91, 4.03, 4.29, 4.29, 5.49, 5.86, 4.12, 4.46, 4.8, 2.51, 1.27, 1.16, 1.61, 1.49, 1.49, 6.98, 6.98, 6.98, 6.98, 6.98, 6.98, 7.26, 7.26, 7.61, 7.9, 7.61, 7.61, 7.95, 8.24, 8.24, 8.58, 9.19, 9.8, 10.4, 11.28, 11.8, 12.27, 12.16, 12.03, 11.88, 11.88, 11.88, 12.51, 12.74, 12.53, 11.81, 10.77, 9.54, 8.74, 8.38, 8.01, 7.57, 7.15, 6.71, 6.23, 6.6, 6.42, 6.79, 6.36, 5.86, 5.64, 5.75, 5.16, 4.73, 4.4, 3.83, 3.48, 1.8, 1.6, -0.0, -0.0, -0.0, -0.95, -0.63, 0.0, 3.58, 2.24, -2.4, -2.21, -2.0, -1.08, -0.0, -0.0, -1.6, 0.0, 1.84, 5.09, 9.16, 9.39, 9.64, 7.06, 3.13, 1.84, 4.96, 4.9, 4.58, 4.28, 3.82, 3.51, 2.99, 2.82, 3.6, 3.6, 1.94, 1.49, 4.11, 7.63, 4.84, 3.07, 2.51, 2.23, 1.2, 1.2, 6.98, 6.98, 6.98, 6.98, 6.98, 6.98, 7.26, 7.61, 7.61, 7.9, 7.9, 7.9, 7.95, 8.24, 8.56, 8.87, 9.48, 10.09, 10.36, 10.94, 11.8, 11.8, 12.65, 12.54, 12.42, 12.28, 11.99, 11.6, 12.23, 11.82, 11.62, 11.33, 10.81, 10.01, 9.67, 8.86, 8.47, 8.49, 8.05, 7.58, 7.5, 7.5, 7.48, 7.45, 6.85, 6.55, 6.55, 6.11, 6.07, 5.64, 4.93, 4.4, 4.24, 2.53, 1.6, -0.0, -0.0, -0.0, 0.89, 0.0, 0.0, 2.53, -0.0, -1.49, -1.49, -1.13, -0.98, -0.87, -1.79, 0.0, 1.16, 4.43, 7.71, 10.73, 11.4, 11.09, 10.96, 6.64, 2.79, 4.44, 6.3, 6.85, 6.0, 3.77, 0.78, 1.35, 1.72, 1.27, 0.0, 0.0, 0.79, 6.4, 7.37, 5.69, 4.73, 3.14, 1.16, 1.16, 7.32, 7.32, 7.32, 7.32, 7.32, 6.98, 7.26, 7.61, 7.61, 7.61, 7.9, 8.24, 8.24, 8.24, 8.56, 8.87, 9.17, 9.77, 10.36, 11.23, 11.44, 11.8, 12.27, 12.54, 12.95, 12.79, 12.11, 11.82, 11.82, 11.62, 11.12, 10.91, 10.66, 10.6, 10.34, 10.01, 9.68, 9.32, 9.37, 8.94, 8.94, 8.49, 8.47, 7.94, 7.48, 7.48, 7.48, 7.12, 6.58, 6.11, 5.64, 4.73, 4.24, 3.32, 1.6, 0.6, -0.0, -0.0, -0.0, 0.89, 0.0, 1.13, 3.58, -0.0, -2.0, -1.0, -1.58, -0.95, 0.0, 0.0, 1.16, 3.07, 6.08, 8.19, 8.46, 9.49, 10.95, 8.01, 3.14, 3.0, 5.69, 8.2, 8.58, 4.8, 0.0, 0.95, 0.0, -0.87, -3.35, -0.87, 0.0, 1.76, 6.99, 7.2, 5.86, 3.78, 1.84, 1.84, 7.32, 7.32, 7.32, 7.32, 7.32, 7.32, 7.32, 7.61, 7.61, 7.61, 7.9, 8.24, 8.24, 8.53, 8.85, 8.85, 9.46, 10.06, 10.65, 10.88, 11.23, 11.72, 11.72, 12.16, 12.42, 12.79, 12.51, 12.33, 12.11, 11.81, 11.39, 11.13, 10.66, 10.34, 9.86, 10.01, 9.57, 9.68, 9.32, 9.37, 8.92, 8.94, 8.49, 8.47, 8.02, 7.94, 8.46, 7.57, 7.12, 6.67, 5.78, 5.32, 4.43, 3.97, 3.04, 1.2, 1.26, -0.0, -0.0, -0.0, 0.8, 1.74, 3.6, -0.0, -0.0, -0.0, -1.79, -0.89, 0.0, 0.0, 1.2, 2.84, 5.43, 5.09, 4.0, 6.11, 7.56, 4.47, 2.5, 1.41, 4.46, 8.66, 10.31, 8.22, 4.6, 0.0, -1.66, -2.53, -2.15, 0.0, 0.0, 1.35, 4.12, 6.44, 6.82, 5.82, 4.12, 4.12, 7.32, 7.32, 7.32, 7.6, 7.6, 7.6, 7.6, 7.91, 7.91, 7.61, 7.61, 8.24, 8.24, 8.53, 8.85, 8.85, 9.13, 9.72, 10.3, 10.65, 11.16, 11.35, 11.62, 11.62, 12.03, 11.88, 12.11, 12.33, 12.11, 11.87, 11.87, 11.56, 11.13, 10.81, 10.34, 10.01, 10.01, 9.67, 9.67, 9.76, 9.31, 8.92, 8.49, 7.6, 7.15, 7.48, 8.46, 8.05, 7.6, 6.71, 5.81, 5.36, 4.92, 4.47, 3.58, 3.13, 1.34, 0.45, -0.0, -0.0, 1.34, 2.4, 3.13, -0.0, -0.0, -1.2, -2.4, -0.89, -2.24, 0.0, 1.24, 4.0, 7.35, 6.06, 6.31, 7.18, 5.06, 2.53, 1.24, 1.4, 2.51, 7.36, 10.04, 10.9, 8.15, 4.29, -0.76, -1.8, -1.35, 0.0, 0.0, 0.61, 1.73, 4.74, 6.18, 6.99, 6.7, 6.7, 7.6, 7.6, 7.6, 7.6, 7.6, 7.6, 7.6, 7.6, 7.91, 7.91, 7.91, 8.22, 8.24, 8.53, 8.53, 8.85, 9.13, 9.72, 10.01, 10.59, 10.8, 11.44, 11.34, 11.5, 11.75, 11.75, 11.7, 11.92, 12.11, 11.87, 11.87, 12.04, 11.56, 11.24, 10.38, 10.47, 10.01, 10.13, 10.11, 9.67, 9.76, 9.31, 8.92, 8.02, 7.15, 7.6, 8.49, 7.12, 5.31, 4.92, 4.92, 4.92, 4.92, 4.47, 4.02, 3.58, 2.68, 1.79, -0.0, -0.0, 1.79, 2.68, 1.79, -0.89, -0.95, -1.26, -1.9, 0.89, 1.79, 0.0, 1.16, 3.84, 8.36, 10.45, 9.92, 9.8, 7.9, 3.48, 1.74, 1.58, 2.86, 5.9, 8.49, 10.12, 10.12, 5.82, 3.14, 0.66, 0.0, 0.0, 0.0, 0.0, 1.11, 3.15, 5.46, 6.8, 7.37, 7.37, 7.6, 7.6, 7.6, 7.6, 7.6, 7.6, 7.6, 7.6, 7.6, 7.91, 7.91, 7.91, 8.22, 8.82, 8.82, 8.82, 9.42, 9.66, 10.01, 10.23, 10.87, 10.7, 10.96, 10.96, 11.36, 11.36, 11.6, 11.41, 11.87, 12.3, 12.3, 11.87, 11.56, 11.08, 10.81, 10.47, 10.47, 10.01, 10.13, 10.11, 9.67, 9.75, 9.31, 8.39, 7.5, 7.81, 8.24, 6.67, 4.02, 3.58, 3.58, 3.58, 4.02, 4.47, 4.02, 3.58, 3.13, 2.68, 1.79, -0.0, -1.79, -2.24, -0.89, -0.89, -0.89, -0.32, -0.45, 0.0, 2.12, 2.21, 1.49, 1.27, 4.0, 10.73, 13.32, 13.75, 11.9, 9.05, 4.09, 3.07, 2.21, 2.98, 6.81, 9.15, 9.78, 9.08, 7.44, 4.12, 2.2, 0.0, -1.27, -0.61, 0.76, 3.74, 5.05, 6.51, 7.1, 7.1, 7.6, 7.6, 7.6, 7.6, 7.6, 7.6, 7.6, 7.6, 7.6, 7.6, 7.91, 8.22, 8.22, 8.82, 8.82, 8.82, 9.08, 9.42, 9.66, 9.94, 10.51, 10.79, 10.96, 10.96, 11.22, 11.22, 11.08, 10.91, 10.68, 11.39, 12.3, 11.87, 11.56, 11.08, 10.81, 10.81, 10.47, 10.04, 10.01, 10.13, 9.68, 9.67, 9.31, 8.77, 8.74, 9.03, 8.97, 7.94, 6.26, 4.92, 4.47, 3.58, 3.58, 3.58, 3.13, 3.13, 2.68, 2.24, 2.24, 2.24, -1.34, -1.34, -1.34, -1.34, -1.2, -0.6, 0.45, 0.0, 2.53, 3.22, 2.53, 0.0, 0.76, 7.08, 13.86, 15.01, 12.42, 9.08, 6.79, 6.64, 6.8, 3.93, 3.84, 7.94, 9.8, 10.09, 9.71, 8.65, 5.21, 4.11, 0.0, -2.21, 3.13, 3.58, 5.75, 6.71, 7.15, 7.15, 7.6, 7.6, 7.6, 7.6, 7.6, 7.6, 7.6, 7.6, 7.6, 7.6, 7.6, 8.22, 8.22, 8.22, 8.5, 8.82, 9.37, 9.37, 9.59, 9.94, 10.41, 10.41, 10.41, 10.83, 10.83, 10.83, 11.08, 11.08, 11.31, 11.09, 10.91, 11.08, 11.08, 11.08, 10.81, 10.81, 10.34, 10.34, 10.04, 10.01, 10.13, 9.67, 9.67, 9.23, 9.21, 9.18, 9.62, 8.84, 8.02, 7.12, 6.23, 5.36, 4.47, 4.02, 3.58, 3.13, 2.68, 2.24, 2.24, 2.24, -2.24, -0.89, -2.24, -1.2, -1.26, -0.99, -0.6, 0.0, 1.9, 2.23, 1.2, 0.0, 0.0, 4.11, 12.14, 15.12, 8.99, 2.15, 2.21, 4.93, 8.89, 9.83, 8.94, 7.31, 8.8, 9.58, 10.23, 9.86, 7.67, 5.95, 4.8, 3.13, -0.0, 3.39, 4.82, 6.64, 6.64, 6.64, 7.3, 7.3, 7.6, 7.6, 7.6, 7.6, 7.6, 7.6, 7.6, 7.6, 7.9, 8.19, 8.52, 8.52, 8.78, 8.78, 9.02, 9.37, 9.59, 9.86, 10.23, 10.41, 10.68, 10.68, 10.83, 10.83, 11.08, 11.08, 11.36, 11.41, 10.91, 10.66, 10.66, 10.66, 10.81, 10.77, 10.34, 10.34, 9.91, 10.01, 10.01, 9.57, 9.67, 9.67, 9.21, 9.64, 9.62, 9.18, 8.84, 8.38, 7.48, 6.58, 6.22, 5.77, 4.92, 4.47, 3.58, 3.13, 2.24, 2.24, 1.79, 1.79, 1.79, -0.0, -0.95, -1.6, -1.2, -0.89, 0.89, 0.0, 0.45, 0.0, 0.65, 6.24, 11.53, 14.21, 9.83, 3.07, 3.07, 6.64, 9.83, 11.18, 11.62, 11.55, 11.03, 11.34, 11.85, 11.26, 9.81, 7.76, 4.38, 2.0, 0.57, 2.21, 4.47, 6.64, 7.08, 7.08, 7.3, 7.3, 7.3, 7.3, 7.3, 7.6, 7.6, 7.6, 7.9, 7.9, 7.9, 8.19, 8.19, 8.19, 8.45, 8.78, 9.02, 9.02, 9.66, 9.86, 9.86, 10.04, 10.3, 10.68, 10.68, 11.08, 11.08, 11.08, 11.08, 11.41, 11.21, 11.33, 10.91, 11.08, 10.66, 10.81, 10.34, 10.34, 9.91, 9.86, 10.01, 9.57, 9.54, 9.67, 9.67, 9.64, 9.64, 9.18, 9.15, 8.67, 8.38, 7.92, 7.45, 6.98, 6.21, 5.75, 4.82, 3.82, 3.58, 2.68, 2.24, 2.24, -0.0, -0.0, -0.0, -1.34, -0.89, -0.89, -1.34, -0.95, 0.0, 0.0, 3.22, 8.93, 11.88, 12.8, 12.52, 12.21, 11.92, 12.09, 12.07, 11.93, 11.45, 11.76, 11.99, 13.15, 13.81, 12.18, 10.18, 6.65, 3.98, 2.68, 1.9, 1.9, 3.82, 5.36, 7.06, 7.06, 7.3, 7.3, 7.3, 7.3, 7.3, 7.59, 7.59, 7.59, 7.59, 7.9, 7.9, 8.19, 8.19, 8.19, 8.45, 8.45, 9.3, 9.3, 9.3, 9.86, 9.86, 9.86, 10.3, 10.3, 10.3, 10.55, 10.68, 10.68, 10.91, 10.91, 10.91, 11.12, 11.12, 10.91, 11.08, 10.66, 10.6, 10.34, 10.34, 9.86, 9.86, 9.54, 9.11, 9.67, 9.67, 10.11, 10.08, 9.46, 9.15, 9.11, 8.67, 8.19, 7.71, 7.42, 6.98, 6.51, 5.59, 5.09, 4.34, 3.13, 3.13, 2.24, -1.26, -0.6, -0.0, 1.79, 0.45, -0.63, -0.63, -1.34, 0.0, 0.0, 3.04, 9.8, 12.3, 11.96, 11.62, 12.77, 14.44, 15.18, 13.39, 11.33, 9.8, 9.32, 9.86, 10.75, 11.06, 9.39, 5.36, 4.88, 4.93, 3.72, 3.45, 2.8, 3.47, 4.77, 6.14, 6.14, 7.3, 7.3, 7.3, 7.59, 7.59, 7.59, 7.59, 7.59, 7.59, 7.59, 7.9, 8.19, 8.19, 8.19, 8.45, 8.45, 9.3, 9.3, 9.3, 9.5, 9.86, 10.13, 10.3, 10.3, 10.3, 10.55, 10.55, 10.68, 10.91, 10.91, 10.91, 10.91, 10.71, 10.71, 10.91, 11.08, 10.66, 10.6, 10.18, 10.12, 9.86, 9.39, 9.07, 8.8, 8.86, 9.67, 9.97, 9.89, 9.4, 8.91, 8.63, 8.19, 7.71, 7.28, 7.21, 6.79, 5.86, 5.34, 3.95, 3.58, 3.58, 3.58, -2.24, -0.95, -0.0, -0.0, -0.0, -0.6, -0.63, -0.95, -1.79, -0.89, 1.34, 7.98, 12.52, 12.3, 10.52, 11.95, 14.7, 15.09, 12.66, 9.49, 7.63, 7.47, 8.05, 8.05, 7.52, 4.87, 4.77, 5.2, 5.44, 4.93, 4.0, 4.15, 3.51, 4.47, 5.81, 5.81, 7.59, 7.59, 7.59, 7.59, 7.59, 7.59, 7.59, 7.59, 7.59, 7.59, 7.59, 7.86, 7.86, 8.19, 8.19, 8.45, 8.73, 9.3, 9.3, 9.3, 9.5, 10.13, 10.13, 10.3, 10.3, 10.55, 10.55, 10.55, 10.91, 10.91, 10.91, 10.71, 10.62, 10.62, 10.83, 10.83, 10.6, 10.6, 10.6, 10.18, 9.7, 9.39, 8.48, 8.33, 8.41, 10.11, 10.84, 10.18, 9.83, 9.33, 8.4, 7.98, 7.47, 7.28, 7.21, 6.79, 6.36, 5.44, 4.24, 3.95, 4.02, 3.58, 3.13, -0.63, -0.0, 2.24, -0.0, -0.63, -0.95, -0.0, -0.95, -1.34, 0.45, 5.81, 13.41, 12.94, 9.49, 10.29, 13.54, 14.53, 11.57, 9.06, 7.97, 6.71, 4.4, 3.83, 4.73, 5.2, 5.2, 5.2, 5.2, 4.73, 4.73, 5.59, 4.85, 4.47, 4.92, 5.81, 7.59, 7.59, 7.27, 7.27, 7.27, 7.59, 7.59, 7.59, 7.59, 7.59, 7.59, 7.86, 7.86, 8.19, 8.19, 8.45, 8.73, 8.73, 9.3, 9.3, 9.5, 9.5, 10.13, 10.13, 10.3, 10.55, 10.55, 10.55, 10.55, 10.91, 10.91, 10.71, 10.62, 10.21, 10.21, 10.42, 10.42, 10.6, 10.6, 10.18, 10.12, 9.63, 8.72, 8.0, 8.63, 10.41, 11.52, 10.43, 9.75, 8.91, 8.4, 7.98, 7.47, 7.06, 7.06, 6.54, 6.13, 5.02, 4.73, 4.24, 4.38, 4.02, 3.13, 2.68, 2.24, 2.68, 1.34, -1.34, -0.95, -0.0, -0.0, -0.63, 0.0, 3.93, 10.68, 11.98, 10.26, 8.63, 10.8, 11.85, 10.53, 9.06, 8.05, 5.6, 4.09, 5.44, 6.42, 6.36, 6.11, 6.11, 5.2, 4.88, 5.32, 7.11, 6.26, 5.36, 5.36, 4.92, 7.27, 7.27, 7.27, 7.27, 7.27, 7.27, 7.59, 7.59, 7.59, 7.59, 7.59, 7.86, 7.86, 8.19, 8.19, 8.45, 8.45, 8.73, 9.3, 9.3, 9.3, 9.5, 9.76, 9.76, 9.76, 9.76, 10.16, 10.16, 10.16, 10.4, 10.4, 10.4, 10.62, 10.21, 10.21, 10.42, 10.42, 10.42, 10.54, 10.12, 10.12, 9.7, 9.21, 8.51, 8.68, 10.58, 10.43, 8.72, 8.14, 7.89, 7.98, 7.98, 7.56, 7.06, 7.06, 6.64, 6.13, 5.44, 4.93, 4.66, 4.57, 4.34, 4.47, 3.58, 3.13, 3.13, 1.79, 3.13, -0.95, -0.0, -0.0, 0.0, 0.0, 2.0, 3.6, 8.49, 10.49, 10.28, 9.06, 7.82, 5.6, 4.47, 4.73, 6.54, 7.14, 7.33, 7.01, 7.01, 7.45, 7.01, 6.22, 5.77, 6.26, 8.05, 8.05, 7.15, 6.71, 6.71, 7.27, 7.27, 7.27, 7.27, 7.27, 7.27, 7.27, 7.59, 7.59, 7.59, 7.59, 7.86, 7.86, 8.19, 8.19, 8.45, 8.45, 8.73, 9.08, 9.3, 9.3, 9.3, 9.5, 9.76, 9.76, 9.76, 9.76, 10.16, 10.16, 10.16, 10.4, 10.4, 10.62, 10.21, 10.21, 10.33, 10.33, 9.92, 9.92, 10.12, 10.12, 9.7, 9.63, 9.42, 10.11, 11.06, 9.83, 7.71, 6.79, 6.79, 7.28, 7.47, 7.47, 7.2, 6.8, 7.06, 6.13, 5.6, 5.34, 4.8, 5.09, 4.57, 3.82, 4.02, 3.13, 3.13, 3.13, 2.68, -0.0, -0.57, -0.63, 0.0, 0.0, 1.27, 1.8, 4.89, 8.19, 9.81, 7.15, 4.02, 2.6, 3.6, 7.73, 9.68, 9.89, 9.26, 7.48, 7.12, 7.12, 7.12, 7.12, 7.15, 7.15, 8.05, 8.43, 8.41, 8.41, 8.41, 7.59, 7.59, 7.27, 7.27, 7.27, 7.27, 7.27, 7.27, 7.59, 7.59, 7.59, 7.59, 7.86, 8.19, 8.19, 8.45, 8.45, 8.45, 8.73, 9.3, 9.3, 9.3, 9.3, 9.76, 9.76, 9.76, 9.76, 10.02, 10.02, 10.16, 10.4, 10.4, 10.21, 10.21, 10.21, 10.33, 9.92, 9.92, 9.92, 10.12, 9.7, 9.7, 9.7, 9.63, 10.05, 10.6, 9.89, 8.28, 7.33, 6.85, 6.79, 6.79, 6.94, 7.06, 6.8, 6.8, 6.54, 6.0, 5.6, 5.34, 4.8, 5.09, 4.4, 4.0, 3.13, 3.13, 2.21, -0.0, -0.0, -0.6, -0.45, -0.57, 0.0, 0.66, 2.35, 4.22, 7.07, 9.26, 9.39, 7.98, 8.32, 10.45, 12.9, 13.0, 12.18, 10.52, 8.38, 6.67, 6.26, 6.71, 6.71, 7.15, 7.15, 8.9, 8.89, 8.67, 8.67, 8.67, 7.59, 7.59, 7.27, 7.27, 7.27, 7.27, 7.27, 7.27, 7.59, 7.59, 7.59, 7.59, 7.86, 8.19, 8.19, 8.19, 8.45, 8.45, 8.45, 9.3, 9.3, 9.3, 9.3, 9.3, 9.76, 9.76, 9.76, 9.76, 10.02, 10.02, 10.02, 9.88, 10.0, 10.11, 10.11, 10.33, 9.92, 9.92, 9.51, 9.7, 9.63, 9.63, 9.63, 9.63, 9.75, 9.75, 9.46, 9.03, 8.28, 7.81, 6.9, 6.58, 6.36, 6.79, 6.94, 6.8, 6.25, 6.13, 5.6, 5.43, 5.34, 4.8, 4.98, 4.0, 4.02, 3.13, 2.21, -0.0, -0.0, -0.6, -0.45, 0.0, 0.0, 1.7, 2.8, 3.07, 4.0, 8.05, 11.15, 11.75, 12.84, 14.93, 16.65, 15.69, 13.53, 10.96, 9.28, 8.46, 8.05, 6.71, 8.49, 6.22, 6.98, 8.29, 8.24, 7.95, 7.95, 7.95, 7.59, 7.59, 7.59, 7.27, 7.27, 7.27, 7.27, 7.59, 7.59, 7.59, 7.59, 7.59, 7.86, 8.19, 8.19, 8.19, 8.45, 8.45, 8.45, 8.73, 9.3, 9.3, 9.3, 9.3, 9.58, 9.58, 9.76, 9.76, 10.02, 10.02, 10.02, 9.88, 9.88, 9.88, 10.11, 9.71, 9.92, 9.92, 9.51, 9.63, 9.63, 9.63, 9.63, 9.75, 9.75, 9.89, 9.46, 9.03, 8.55, 8.28, 7.81, 7.04, 6.58, 6.55, 6.79, 6.25, 6.25, 6.25, 5.86, 5.6, 5.05, 5.34, 4.8, 4.57, 3.6, 3.58, 3.13, -0.0, -0.0, -0.63, -0.95, 0.0, 0.0, 0.7, 1.4, 2.54, 3.13, 7.55, 9.54, 8.68, 10.43, 15.13, 17.79, 16.39, 13.35, 10.96, 10.18, 10.26, 9.83, 9.39, 7.08, 4.73, 6.02, 6.7, 6.99, 6.99, 6.99, 6.99, 7.59, 7.59, 7.59, 7.59, 7.59, 7.27, 7.27, 7.59, 7.59, 7.59, 7.59, 7.59, 7.59, 7.86, 8.19, 8.19, 8.19, 8.45, 8.45, 8.73, 8.73, 8.94, 8.94, 8.94, 9.58, 9.58, 9.58, 9.76, 10.02, 10.02, 9.63, 9.63, 9.88, 9.88, 10.11, 9.71, 9.92, 9.92, 9.51, 9.42, 9.63, 9.63, 9.81, 9.33, 9.33, 9.46, 9.46, 8.97, 8.55, 8.55, 8.24, 7.76, 6.9, 6.58, 6.0, 6.25, 6.25, 6.25, 5.86, 5.69, 5.6, 5.05, 4.93, 4.4, 4.15, 4.02, 3.58, 3.13, 3.13, 1.34, 0.0, 0.0, 0.0, 0.0, 0.0, 1.58, 2.97, 5.94, 6.08, 4.71, 7.18, 13.43, 17.64, 16.55, 14.83, 12.62, 10.73, 9.81, 8.91, 5.32, 4.3, 4.73, 4.93, 5.75, 6.16, 5.82, 5.82, 5.82, 7.59, 7.59, 7.59, 7.59, 7.59, 7.59, 7.59, 7.59, 7.59, 7.59, 7.59, 7.59, 7.59, 7.86, 7.86, 8.19, 8.19, 8.19, 8.45, 8.73, 8.73, 8.73, 8.94, 8.94, 9.21, 9.21, 9.21, 9.21, 9.48, 9.63, 9.63, 9.88, 9.88, 9.88, 9.71, 9.71, 9.71, 9.42, 9.42, 9.42, 9.63, 9.21, 9.21, 9.33, 9.33, 9.46, 8.97, 8.97, 8.55, 8.55, 8.06, 8.06, 7.33, 6.85, 6.36, 6.0, 5.69, 5.69, 5.69, 5.31, 5.31, 5.05, 4.66, 4.4, 4.15, 4.0, 4.02, 3.58, 3.13, 1.34, -1.34, -0.95, -1.26, -1.6, -1.79, 1.79, 2.68, 2.21, 3.22, 3.79, 5.77, 10.68, 14.95, 15.58, 15.44, 13.35, 9.81, 6.21, 5.32, 5.32, 4.3, 4.0, 4.4, 4.84, 5.43, 5.82, 5.82, 5.82, 7.59, 7.59, 7.59, 7.59, 7.59, 7.59, 7.59, 7.59, 7.59, 7.59, 7.59, 7.59, 7.59, 7.59, 7.86, 7.86, 8.19, 8.19, 8.73, 8.73, 8.73, 8.73, 8.73, 9.21, 9.21, 9.21, 9.21, 9.21, 9.48, 9.48, 9.48, 9.74, 9.35, 9.35, 9.6, 9.6, 9.6, 9.42, 9.42, 9.42, 9.42, 9.21, 9.21, 9.13, 9.33, 9.26, 8.84, 8.97, 8.55, 8.55, 8.06, 8.06, 7.56, 7.14, 6.36, 6.0, 5.6, 5.31, 5.31, 5.31, 5.31, 4.73, 4.66, 4.09, 3.83, 3.6, 3.13, 3.13, 2.24, 1.79, 1.79, 1.79, -1.26, -1.26, -1.6, 1.79, -0.0, -0.0, 0.61, 2.3, 4.84, 6.7, 9.3, 12.16, 14.27, 13.4, 4.85, 3.32, 3.97, 5.32, 5.78, 4.73, 3.72, 4.46, 4.46, 5.09, 5.09, 5.09, 7.59, 7.59, 7.59, 7.59, 7.59, 7.59, 7.59, 7.59, 7.59, 7.59, 7.59, 7.59, 7.59, 7.59, 7.86, 7.86, 7.86, 8.15, 8.15, 8.73, 8.73, 8.73, 9.01, 9.01, 9.01, 9.21, 9.21, 9.21, 9.48, 9.48, 9.1, 9.35, 9.35, 9.35, 9.6, 9.2, 9.2, 9.42, 9.42, 9.42, 9.42, 9.21, 9.13, 9.13, 9.13, 8.84, 8.84, 8.34, 8.34, 8.25, 7.84, 7.84, 7.73, 7.14, 6.64, 6.13, 6.0, 5.6, 4.93, 4.93, 4.73, 4.73, 4.37, 4.46, 4.09, 3.72, 2.53, 2.68, 1.79, 1.34, 1.79, 1.79, 1.79, -1.26, -1.49, -1.7, -1.79, -1.26, -0.0, 1.61, 3.14, 3.79, 5.09, 9.2, 13.96, 11.15, 5.81, 2.86, 2.5, 4.11, 6.11, 6.42, 4.66, 3.84, 4.12, 4.46, 4.46, 4.46, 7.59, 7.59, 7.59, 7.59, 7.59, 7.59, 7.59, 7.59, 7.59, 7.59, 7.59, 7.59, 7.59, 7.59, 7.59, 7.86, 8.15, 8.15, 8.15, 8.15, 8.38, 8.73, 9.01, 9.01, 9.01, 8.65, 8.65, 8.93, 9.1, 9.1, 9.35, 9.35, 9.35, 9.2, 9.2, 9.2, 9.42, 9.42, 9.42, 9.42, 9.32, 9.13, 9.13, 9.13, 8.72, 8.63, 8.22, 8.34, 8.34, 7.84, 7.84, 7.73, 7.73, 7.33, 6.8, 6.8, 6.54, 6.0, 5.09, 4.73, 4.73, 4.73, 4.37, 4.12, 4.12, 3.84, 1.8, 1.4, 0.0, -0.6, -0.6, -0.95, 2.24, 2.24, -1.7, -2.68, -2.24, -1.86, -0.6, 0.8, 2.5, 2.53, 3.49, 7.89, 15.65, 12.96, 7.6, 2.86, 1.2, 2.23, 4.66, 6.8, 5.09, 3.48, 3.16, 3.79, 3.79, 3.79, 7.59, 7.59, 7.59, 7.59, 7.59, 7.59, 7.59, 7.59, 7.59, 7.59, 7.59, 7.27, 7.59, 7.59, 7.59, 7.88, 8.15, 8.15, 8.15, 8.15, 8.15, 8.65, 8.65, 8.65, 8.65, 8.93, 8.93, 8.93, 8.93, 8.93, 9.2, 9.2, 8.96, 9.2, 9.2, 9.2, 9.42, 9.42, 9.42, 9.32, 9.55, 9.55, 9.13, 9.13, 9.04, 8.63, 8.22, 8.12, 7.93, 7.84, 7.84, 7.73, 7.33, 7.06, 7.33, 6.8, 6.64, 6.25, 5.69, 5.09, 4.73, 4.73, 4.11, 4.11, 4.46, 4.11, 2.48, 1.13, 0.0, -0.65, -1.2, -1.2, 0.0, 1.2, -1.58, -2.24, -2.68, -2.12, -0.63, -0.0, 1.26, 2.5, 3.45, 14.73, 16.47, 14.23, 10.24, 4.4, 0.76, 1.84, 3.48, 5.95, 5.09, 3.16, 2.51, 2.79, 2.79, 2.79, 7.59, 7.59, 7.59, 7.59, 7.59, 7.59, 7.59, 7.59, 7.27, 7.27, 7.27, 7.27, 7.27, 7.55, 7.88, 7.88, 7.88, 8.15, 8.15, 8.15, 8.44, 8.44, 8.65, 8.65, 8.93, 8.93, 8.93, 8.93, 8.93, 9.2, 8.82, 8.82, 8.82, 9.07, 9.2, 9.2, 9.42, 9.42, 9.32, 9.32, 9.32, 9.13, 9.13, 9.13, 9.04, 8.63, 8.22, 8.12, 7.71, 7.6, 7.84, 7.6, 7.06, 7.06, 6.67, 6.52, 6.52, 6.32, 6.25, 5.69, 5.09, 4.43, 4.43, 4.43, 4.43, 4.01, 3.22, 2.4, 0.65, 0.0, -0.76, -1.6, -0.7, 0.0, 0.0, -1.6, -1.79, -1.34, 0.89, 0.89, 0.89, 1.7, 8.05, 13.41, 15.65, 13.86, 10.69, 6.4, 0.0, 1.13, 3.16, 5.72, 6.6, 4.19, 2.79, 2.79, 2.79, 2.79, 7.59, 7.59, 7.59, 7.59, 7.59, 7.59, 7.59, 7.27, 7.27, 7.27, 7.27, 7.27, 7.55, 7.55, 7.55, 7.55, 7.55, 8.15, 8.15, 8.44, 8.44, 8.44, 8.44, 8.93, 8.93, 8.93, 8.93, 8.55, 8.82, 8.82, 8.82, 8.82, 9.07, 9.07, 9.07, 9.07, 9.32, 9.32, 9.32, 9.32, 8.91, 9.13, 9.13, 9.13, 8.63, 8.63, 8.22, 8.12, 7.71, 7.71, 7.6, 7.2, 7.06, 6.67, 6.67, 6.67, 6.52, 6.52, 6.32, 5.72, 5.36, 5.09, 4.43, 4.43, 4.74, 4.74, 3.9, 3.22, 0.76, 0.65, 0.0, -1.2, -1.4, -1.4, -0.54, -0.71, -1.58, -0.71, 0.0, 0.6, 0.0, 0.63, 5.36, 10.28, 12.49, 11.18, 8.49, 4.8, 0.0, 1.27, 3.72, 6.44, 6.99, 5.37, 3.48, 3.48, 3.48, 3.48, 7.27, 7.27, 7.27, 7.59, 7.59, 7.27, 7.27, 7.27, 7.27, 7.27, 7.55, 7.55, 7.55, 7.55, 7.55, 7.55, 7.55, 7.55, 8.08, 8.08, 8.08, 8.44, 8.44, 8.73, 8.93, 8.55, 8.55, 8.55, 8.82, 8.82, 8.82, 8.82, 8.82, 9.07, 9.07, 9.07, 9.07, 8.91, 8.91, 8.91, 8.91, 8.91, 8.91, 9.13, 8.63, 8.63, 8.12, 8.12, 7.71, 7.71, 7.2, 7.2, 7.06, 6.67, 6.41, 6.41, 6.23, 6.23, 6.23, 5.65, 5.38, 5.72, 5.09, 4.74, 4.74, 4.36, 4.36, 3.9, 2.47, 0.98, 1.9, -2.24, -1.58, -1.88, -1.24, -0.8, -0.71, -0.53, 0.0, 0.0, 0.0, 1.9, 3.82, 6.66, 9.39, 8.94, 7.15, 4.41, 0.61, 0.0, 2.11, 5.06, 6.21, 6.0, 4.19, 3.49, 3.49, 3.49, 7.27, 7.27, 7.27, 7.27, 7.27, 7.27, 7.27, 7.27, 7.27, 7.55, 7.55, 7.55, 7.55, 7.55, 7.55, 7.55, 7.55, 7.85, 7.85, 8.08, 8.08, 8.08, 8.08, 8.37, 8.37, 8.55, 8.55, 8.55, 8.82, 8.82, 8.82, 8.82, 8.82, 9.07, 9.07, 9.07, 9.07, 8.68, 8.91, 8.91, 8.91, 8.91, 8.91, 8.4, 8.4, 8.63, 8.12, 7.87, 7.48, 7.34, 6.95, 6.79, 6.79, 6.41, 6.41, 6.23, 6.23, 6.23, 6.23, 5.68, 5.65, 5.38, 5.38, 5.06, 4.65, 4.65, 4.65, 4.16, 3.33, 1.08, 1.2, 0.0, -1.26, -2.5, -2.15, -1.26, -0.57, -0.53, -0.61, -0.61, 0.0, 1.16, 2.51, 4.66, 7.45, 8.01, 6.66, 4.92, 2.21, 0.0, 0.66, 1.8, 3.79, 5.95, 4.89, 2.84, 2.84, 2.84, 6.97, 6.97, 7.27, 7.27, 7.27, 7.27, 7.27, 7.27, 7.55, 7.55, 7.55, 7.55, 7.55, 7.55, 7.55, 7.55, 7.85, 7.85, 7.85, 7.85, 8.08, 8.08, 8.08, 8.37, 8.37, 8.37, 8.37, 8.55, 8.82, 8.82, 8.82, 8.82, 8.82, 9.07, 9.07, 8.68, 8.68, 8.68, 8.68, 8.91, 8.91, 8.91, 8.4, 8.4, 8.4, 8.4, 7.87, 7.87, 7.48, 7.34, 6.95, 6.79, 6.79, 6.41, 6.41, 6.15, 5.93, 5.93, 5.93, 5.68, 5.35, 5.35, 5.06, 5.38, 5.06, 5.06, 5.06, 4.29, 3.2, 1.3, 0.98, 0.85, 0.0, -1.9, -2.53, -1.4, -0.65, -0.65, -0.61, -0.7, 0.0, 0.0, 2.07, 4.46, 7.89, 9.24, 8.44, 6.71, 5.81, 2.98, 0.0, 0.51, 2.51, 4.46, 3.45, 3.13, 3.13, 3.13, 6.97, 6.97, 6.97, 6.97, 7.27, 7.27, 7.55, 7.55, 7.55, 7.55, 7.55, 7.55, 7.55, 7.55, 7.55, 7.55, 7.85, 7.85, 7.85, 7.85, 7.85, 8.08, 8.37, 8.37, 8.37, 8.37, 8.37, 8.37, 8.65, 8.82, 8.82, 8.82, 8.82, 8.82, 8.68, 8.68, 8.68, 8.68, 8.68, 8.68, 8.91, 8.4, 8.4, 8.4, 8.4, 8.0, 7.87, 7.87, 7.48, 7.34, 6.95, 6.51, 6.51, 6.51, 6.15, 6.15, 5.93, 5.93, 5.93, 5.68, 5.68, 5.68, 5.35, 5.06, 5.06, 5.06, 4.71, 5.0, 4.03, 3.2, 2.2, 0.65, 0.71, 0.0, -1.88, -2.3, -1.33, -1.2, -1.61, -1.16, -0.61, 0.0, 1.8, 4.81, 8.4, 10.84, 11.0, 9.39, 8.49, 8.05, 4.4, 0.61, 1.16, 2.5, 3.13, 3.39, 3.39, 3.39, 6.67, 6.67, 6.67, 6.97, 6.97, 7.55, 7.55, 7.55, 7.55, 7.55, 7.55, 7.55, 7.23, 7.23, 7.23, 7.51, 7.51, 7.51, 7.51, 7.51, 7.51, 7.85, 8.08, 8.37, 8.37, 8.37, 8.37, 8.37, 8.37, 8.65, 8.65, 8.65, 8.27, 8.27, 8.68, 8.68, 8.68, 8.68, 8.68, 8.68, 8.15, 8.15, 8.4, 8.4, 8.4, 8.0, 7.87, 7.87, 7.48, 7.07, 7.07, 6.51, 6.51, 6.51, 6.51, 6.51, 6.28, 5.65, 5.65, 5.37, 5.37, 5.37, 5.37, 5.37, 5.05, 5.05, 5.05, 5.0, 4.83, 4.03, 3.0, 0.65, 0.71, 4.02, 0.0, -1.88, -2.41, -1.86, -1.9, -1.16, -1.33, 0.0, 1.41, 4.01, 8.0, 10.84, 11.58, 10.73, 9.83, 9.83, 8.94, 5.6, 1.6, 3.13, 3.39, 4.77, 4.77, 4.77, 6.67, 6.67, 6.67, 6.95, 6.95, 6.95, 7.27, 7.55, 7.55, 7.55, 7.23, 7.23, 7.23, 7.23, 7.23, 7.51, 7.51, 7.51, 7.51, 7.51, 7.51, 7.51, 7.51, 8.37, 8.37, 8.37, 8.37, 8.37, 8.37, 8.65, 8.27, 8.27, 8.27, 8.27, 8.27, 8.68, 8.68, 8.68, 8.68, 8.15, 8.15, 8.15, 8.15, 8.15, 8.15, 7.76, 7.61, 7.61, 7.61, 7.07, 7.07, 6.51, 6.23, 6.23, 6.23, 6.23, 5.98, 5.98, 5.65, 5.37, 5.37, 5.37, 5.37, 5.37, 5.37, 5.05, 5.05, 4.94, 4.46, 3.69, 3.0, 2.66, 1.8, 3.6, 1.79, -1.0, -2.5, -2.4, -1.9, -1.16, -0.66, 0.0, 1.47, 3.9, 6.79, 9.92, 10.68, 10.28, 9.83, 9.39, 9.39, 7.6, 5.81, 4.77, 5.26, 6.14, 6.14, 6.14, 6.67, 6.67, 6.67, 6.95, 6.95, 6.95, 7.27, 7.55, 7.55, 7.55, 7.23, 7.23, 7.23, 7.23, 7.23, 7.51, 7.51, 7.51, 7.51, 7.51, 7.51, 7.51, 7.51, 8.37, 8.37, 8.37, 8.37, 8.37, 8.37, 8.65, 8.27, 8.27, 8.27, 8.27, 8.27, 8.68, 8.68, 8.68, 8.68, 8.15, 8.15, 8.15, 8.15, 8.15, 8.15, 7.76, 7.61, 7.61, 7.61, 7.07, 7.07, 6.51, 6.23, 6.23, 6.23, 6.23, 5.98, 5.98, 5.65, 5.37, 5.37, 5.37, 5.37, 5.37, 5.37, 5.05, 5.05, 4.94, 4.46, 3.69, 3.0, 2.66, 1.8, 3.6, 1.79, -1.0, -2.5, -2.4, -1.9, -1.16, -0.66, 0.0, 1.47, 3.2, 6.11, 8.17, 9.21, 9.83, 9.83, 9.83, 9.77, 9.11, 8.17, 7.21, 7.06, 7.6, 7.6, 7.6]}, {"header": {"dx": 0.06612293990616946, "dy": 0.0552356325346848, "nx": 98, "ny": 59, "la1": 35.046912555036876, "la2": 31.78801023549047, "lo1": -121.43107172385933, "lo2": -114.95102361305473, "refTime": "2026040706", "parameterCategory": 1, "parameterNumber": 3}, "data": [-9.08, -9.08, -9.08, -8.82, -8.82, -8.49, -8.21, -8.19, -7.58, -6.95, -6.35, -5.72, -3.35, -2.68, 0.0, 0.0, 0.0, -1.2, -1.86, -1.9, -1.86, -1.2, -2.24, 0.0, 0.0, -0.98, -0.88, 0.0, 0.0, 1.05, 2.49, 2.99, 2.76, 2.0, 1.41, 0.63, 0.0, 0.0, 0.0, 0.0, -0.59, -1.66, -4.43, -6.18, -6.69, -7.9, -9.66, -10.86, -10.47, -6.05, 3.79, 5.59, 6.28, 6.8, 7.76, 7.15, 7.06, 5.76, 5.76, 5.21, 5.21, 5.2, 5.15, 5.06, 4.74, 4.58, 4.42, 4.5, 4.2, 5.0, 5.06, 4.17, 3.67, 2.95, 3.11, 3.99, 4.44, 3.68, 2.39, 1.65, 1.02, 1.73, -0.0, -0.0, -0.0, 2.8, 3.13, 2.4, 0.87, -0.7, -2.12, -3.78, -4.68, -5.4, -5.29, -4.65, -3.61, -0.7, -9.08, -9.08, -8.82, -8.82, -8.49, -8.49, -8.15, -8.19, -7.85, -7.56, -6.31, -4.89, -3.22, -2.23, -2.53, -2.68, -1.34, -1.34, -2.12, -2.68, -2.8, -2.6, -2.24, -1.4, 0.0, -0.88, -0.79, -0.7, 0.0, 1.13, 2.23, 0.87, 0.76, 0.76, 0.61, 0.0, 0.0, 0.0, -0.7, -0.63, -1.27, -3.76, -6.87, -9.04, -10.9, -12.42, -12.84, -12.47, -9.95, 0.0, 5.75, 6.07, 6.28, 6.94, 6.64, 6.79, 6.32, 5.76, 6.04, 5.64, 5.46, 5.36, 5.69, 5.43, 5.06, 4.95, 5.1, 5.36, 5.21, 5.52, 5.51, 4.87, 4.3, 2.95, 3.14, 4.0, 4.25, 3.68, 2.39, 1.65, 1.02, 1.73, -0.0, -0.0, -0.0, 2.8, 3.13, 2.4, 0.87, -0.7, -2.12, -3.78, -4.68, -5.4, -5.29, -4.65, -3.61, -0.7, -9.08, -8.82, -8.49, -8.49, -8.49, -8.49, -8.44, -8.19, -8.15, -7.56, -7.15, -6.28, -3.14, -2.6, -1.9, -1.0, -0.8, -1.6, -2.24, -2.6, -3.39, -3.95, -3.58, -3.58, -2.53, -1.66, 0.0, 0.0, 0.0, 1.2, 0.0, -1.58, -2.68, -1.9, -0.85, -0.87, -0.73, -0.76, -1.52, -2.2, -4.02, -7.31, -10.91, -13.51, -14.76, -15.09, -14.7, -11.76, -2.76, 5.94, 6.07, 5.86, 6.16, 6.21, 6.07, 6.11, 6.01, 5.76, 6.04, 5.06, 5.06, 5.1, 5.37, 6.11, 6.44, 6.39, 6.64, 6.83, 6.7, 7.08, 6.87, 5.6, 4.06, 2.82, 2.21, 1.96, 2.35, 3.87, 2.16, 0.84, 0.85, 2.21, 3.4, -0.0, -0.0, 3.13, 3.04, 2.21, 0.66, -1.45, -3.85, -5.2, -5.51, -6.09, -5.51, -4.5, -1.36, 0.51, -9.01, -8.79, -8.79, -8.79, -8.79, -8.44, -8.44, -8.08, -8.15, -7.8, -7.51, -7.15, -4.54, -3.07, -3.2, -2.6, -2.21, -1.58, -2.4, -2.68, -3.07, -3.07, -3.95, -4.47, -3.97, -3.2, -1.4, 0.0, 0.0, 0.0, -1.9, -3.51, -4.24, -3.9, -3.39, -3.16, -3.49, -3.4, -4.96, -6.88, -8.85, -10.86, -12.16, -12.52, -12.16, -11.49, -9.23, -3.22, 5.36, 5.82, 5.6, 5.75, 5.58, 6.21, 6.18, 6.79, 6.32, 6.18, 5.9, 5.29, 4.2, 4.68, 5.77, 6.44, 7.44, 7.41, 7.35, 7.61, 8.57, 8.49, 8.56, 7.23, 5.91, 4.21, 1.94, 0.0, -0.74, 0.0, 1.59, 0.0, 0.94, 1.84, 3.2, 1.84, -0.0, 3.2, 2.53, 0.66, -0.69, -3.16, -4.65, -5.2, -5.3, -5.95, -3.8, -1.23, 0.0, 1.16, -9.01, -8.79, -8.79, -8.79, -8.44, -8.44, -8.44, -8.08, -8.37, -7.8, -7.72, -7.15, -4.84, -2.86, -3.83, -4.22, -3.74, -3.22, -2.8, -3.58, -3.51, -3.04, -2.6, -3.13, -4.02, -3.58, -3.04, -2.21, -1.4, -0.7, -1.4, -4.92, -7.21, -8.63, -9.39, -9.54, -9.21, -9.3, -10.55, -11.52, -11.54, -8.6, -5.59, -3.47, -3.51, -3.7, -0.83, 2.82, 4.65, 5.46, 5.43, 5.82, 5.58, 6.6, 6.82, 6.73, 5.89, 5.63, 5.9, 4.92, 3.32, 4.29, 6.21, 7.03, 8.05, 7.68, 7.35, 7.02, 8.3, 8.53, 8.05, 7.32, 6.89, 6.8, 4.49, 0.0, -2.2, -2.31, -0.74, 0.0, 0.7, 1.49, 1.6, 1.18, 0.0, 0.0, 0.0, -1.44, -3.68, -5.38, -5.29, -4.5, -5.41, -2.88, 0.0, 0.65, 0.66, 1.13, -9.01, -9.01, -8.79, -8.79, -8.44, -8.44, -8.44, -8.37, -8.37, -8.27, -7.72, -7.61, -4.84, -3.58, -3.2, -4.8, -5.09, -4.6, -4.98, -6.2, -6.88, -5.34, -3.74, -3.32, -3.51, -4.02, -4.02, -3.95, -3.74, -3.22, -2.07, -2.84, -6.71, -9.35, -11.18, -11.09, -11.23, -11.83, -12.52, -11.5, -8.8, -6.0, -2.79, -1.4, -2.31, -0.75, 1.52, 3.69, 4.65, 4.43, 4.54, 4.81, 5.82, 5.82, 6.18, 5.24, 5.1, 4.5, 4.2, 3.95, 3.09, 3.79, 6.4, 7.35, 7.67, 7.68, 7.35, 6.73, 6.39, 6.42, 5.6, 5.86, 7.23, 7.32, 5.67, 3.36, 0.0, -1.41, 0.0, 1.54, 1.41, 0.0, -0.76, -0.76, -0.81, -2.84, -4.36, -6.09, -7.01, -6.9, -5.86, -6.21, -5.38, 2.84, 2.6, 1.2, 0.0, 0.59, -9.01, -9.01, -9.01, -8.79, -8.44, -8.44, -8.44, -8.55, -8.55, -8.27, -8.15, -7.87, -4.84, -2.86, -4.29, -4.22, -5.2, -5.82, -6.21, -6.0, -4.47, -4.73, -6.57, -7.21, -7.08, -7.15, -8.05, -8.05, -7.6, -5.75, -3.47, -2.53, -1.13, -4.98, -8.8, -10.18, -11.4, -11.39, -9.67, -6.64, -5.09, -6.45, -8.0, -8.41, -5.43, 0.0, 4.16, 5.1, 4.83, 4.47, 5.24, 5.09, 5.43, 5.43, 5.06, 3.9, 4.16, 3.79, 3.27, 3.06, 3.0, 3.48, 5.6, 6.16, 6.21, 7.15, 6.48, 5.2, 4.22, 3.63, 3.39, 3.68, 4.06, 3.28, 3.13, 3.22, 2.55, 1.84, 2.6, 2.39, 0.84, -1.84, -4.03, -3.91, -3.69, -5.35, -8.3, -8.76, -8.2, -7.01, -7.46, -7.8, -2.4, 3.98, 3.09, 0.59, 0.0, 0.79, -9.01, -9.01, -9.01, -9.01, -8.65, -8.65, -8.93, -8.93, -8.55, -8.82, -8.68, -8.72, -6.16, -4.4, -5.24, -4.84, -5.09, -5.46, -4.84, -3.79, -0.7, 0.61, -1.2, -4.47, -8.01, -9.33, -9.39, -9.33, -7.81, -6.88, -5.7, -5.81, -6.94, -7.15, -8.43, -9.49, -10.32, -10.01, -9.38, -4.89, -2.8, -3.32, -6.0, -5.37, -1.58, 3.51, 4.4, 4.65, 5.3, 5.69, 3.79, 5.09, 5.43, 5.06, 5.06, 4.65, 4.29, 3.69, 2.99, 2.99, 2.2, 2.84, 3.45, 4.98, 4.98, 5.49, 5.21, 3.14, 1.1, 1.18, 0.89, 0.93, 0.0, 0.0, 0.0, 0.0, 2.31, 4.75, 4.93, 3.1, 1.42, -1.5, -4.5, -5.59, -6.28, -6.92, -7.59, -8.22, -7.73, -7.36, -7.15, -3.79, 4.47, 3.97, 2.23, 0.61, 0.0, 1.49, -9.01, -9.01, -9.01, -9.01, -9.01, -8.65, -8.93, -8.93, -8.93, -9.35, -9.71, -10.42, -9.75, -9.97, -8.3, -6.94, -7.76, -6.94, -4.4, -1.88, 0.0, 1.05, 0.95, -0.73, -4.0, -5.29, -5.36, -6.36, -7.37, -7.81, -10.2, -12.52, -13.86, -13.67, -11.61, -8.95, -9.8, -9.8, -4.57, -2.12, 0.0, 0.0, -0.63, 0.0, 1.79, 3.07, 2.23, 2.53, 4.12, 6.08, 7.37, 6.07, 6.08, 5.37, 5.0, 5.3, 4.71, 4.0, 3.06, 2.9, 2.26, 2.53, 3.58, 4.4, 4.98, 5.49, 4.56, 2.83, 0.96, 0.0, 0.0, 0.0, 0.0, -0.71, -0.7, 0.0, 0.74, 1.56, 1.51, 1.38, 1.57, 0.0, -1.5, -4.67, -6.98, -6.95, -7.27, -6.88, -6.92, -5.78, -2.88, 2.2, 3.58, 1.2, 0.63, 0.0, 0.0, 1.33, -9.01, -9.01, -9.01, -9.01, -9.01, -9.01, -9.3, -9.48, -9.48, -9.63, -10.16, -11.08, -10.8, -12.04, -11.8, -11.84, -12.53, -12.71, -12.47, -12.01, -10.47, -9.45, -6.64, -5.03, -6.7, -6.4, -4.41, -4.24, -9.38, -10.7, -12.07, -12.47, -11.18, -9.83, -11.18, -10.04, -7.76, -2.8, 0.0, 0.0, 0.0, 0.0, 0.0, 0.95, 1.2, 0.89, 0.89, 1.7, 3.39, 5.16, 6.4, 6.18, 5.37, 5.0, 5.3, 5.49, 4.5, 3.61, 3.11, 2.28, 1.58, 3.72, 6.9, 5.94, 6.45, 5.82, 4.2, 3.88, 1.7, 0.0, 0.0, -0.72, -0.68, -0.68, 0.0, -0.67, -1.52, -1.47, -1.39, -0.69, 0.0, 0.0, 0.7, -1.36, -4.73, -5.86, -6.35, -6.01, -5.35, -3.78, -2.76, 0.0, -0.76, -1.33, -1.35, -0.61, 0.81, 1.33, -9.01, -9.01, -9.01, -9.01, -9.01, -9.01, -9.21, -9.48, -9.86, -9.76, -10.3, -11.22, -10.96, -11.08, -10.43, -12.37, -13.23, -14.9, -15.54, -16.89, -17.42, -17.35, -16.15, -13.65, -11.34, -7.31, -4.41, -3.13, -3.97, -8.89, -8.49, -3.58, -1.2, -0.95, -3.58, -7.98, -4.41, -0.0, -0.0, -1.79, -1.79, -1.6, 0.0, 0.0, -0.0, 1.26, 1.7, 1.79, 3.07, 3.53, 3.45, 3.35, 3.22, 3.55, 3.69, 4.6, 3.95, 2.25, 1.52, 0.0, 1.55, 6.18, 7.53, 7.55, 7.85, 6.39, 5.38, 4.5, 3.4, 0.88, 0.0, -1.36, -1.36, -0.7, -0.7, -1.36, -2.11, -3.8, -3.78, -4.65, -3.47, -2.11, 0.0, 0.0, -1.6, -5.09, -4.93, -5.09, -4.75, -3.48, -3.49, -3.14, -3.49, -3.16, -2.48, -1.7, 0.0, 0.61, -9.3, -9.01, -9.01, -9.01, -9.01, -9.21, -9.58, -9.58, -9.76, -10.13, -10.68, -10.96, -10.7, -10.51, -9.02, -8.65, -7.72, -9.71, -12.04, -13.93, -12.72, -10.94, -9.77, -10.23, -6.26, -2.24, -1.34, 0.0, 0.0, -0.89, -2.12, -0.0, 1.24, 1.26, 0.0, -2.68, -2.5, -0.65, -1.2, -2.5, -1.86, -0.8, 0.89, 0.89, 1.6, 2.4, 2.24, 1.6, 1.9, 1.9, 0.0, 0.0, 0.0, 0.0, 0.67, 1.49, 0.75, 0.74, 0.0, -0.74, 3.91, 7.53, 8.44, 7.6, 8.17, 6.79, 6.14, 5.95, 4.4, 2.23, 0.69, 0.0, 0.0, -0.76, -1.49, -2.28, -3.11, -4.0, -5.7, -6.53, -5.6, -3.82, -1.55, 0.0, 0.71, -1.18, -6.13, -4.52, -4.09, -4.09, -4.52, -4.6, -4.11, -4.0, -3.49, -2.68, 0.0, 0.87, -9.3, -9.01, -9.01, -9.01, -9.21, -9.58, -9.58, -9.58, -10.13, -10.51, -10.41, -10.79, -11.07, -11.16, -9.46, -7.3, -5.71, -5.71, -6.95, -7.9, -6.98, -4.63, -3.09, -0.67, 0.61, 0.55, 0.57, 0.54, 1.34, 1.24, -0.0, -0.0, 0.57, -0.0, -0.0, -0.0, -0.0, -0.65, -1.84, -2.07, -1.16, -0.0, 0.99, 1.49, 2.12, 2.12, 1.34, 0.0, -1.58, -2.21, -3.07, -3.07, -3.43, -5.38, -6.32, -6.64, -3.99, -1.04, -2.15, 0.0, 4.92, 6.71, 7.6, 7.6, 7.81, 4.74, 4.29, 5.04, 4.5, 3.95, 4.07, 3.49, 2.44, 0.0, -0.85, -2.97, -3.61, -3.8, -4.37, -4.87, -3.55, -3.79, -4.15, -3.78, 0.0, 0.0, -1.92, -5.49, -4.0, -4.0, -3.82, -3.58, -3.97, -4.02, -4.47, -2.17, -2.53, 2.53, -9.3, -9.3, -9.01, -9.21, -9.58, -9.58, -9.58, -10.13, -10.13, -10.23, -10.41, -10.79, -10.87, -11.16, -10.06, -8.53, -6.98, -6.35, -6.35, -6.61, -5.64, -3.99, -1.71, 0.0, 0.0, 0.0, 0.0, -0.57, -0.43, -0.0, -0.0, -0.0, -0.0, -0.57, -0.0, -0.0, -0.0, -0.65, -1.16, -1.33, -0.51, -0.0, -0.0, 1.0, 2.8, 2.0, -0.0, -0.89, -2.8, -3.74, -4.15, -6.99, -9.77, -9.77, -8.99, -8.48, -6.88, -3.91, -4.2, 0.6, 2.86, 4.0, 5.7, 6.26, 0.0, 0.0, 0.0, 0.0, 1.0, 3.91, 6.42, 6.31, 4.07, 0.81, -0.81, -2.57, -1.72, -0.66, -0.66, -0.73, -2.0, -3.43, -5.46, -5.4, -3.35, -2.33, -1.51, -2.95, -4.98, -4.66, -3.9, -2.8, -2.68, -3.51, -3.07, -3.04, -0.0, 3.58, -9.3, -9.01, -9.01, -9.21, -9.58, -9.58, -9.95, -9.86, -9.86, -10.23, -10.23, -10.51, -10.51, -10.59, -10.3, -10.06, -8.56, -7.61, -6.7, -6.33, -5.86, -5.11, -3.39, -2.94, -2.3, -1.75, -1.72, -1.65, -1.67, -0.85, 0.0, -0.0, -0.0, -0.0, -0.0, -0.0, -0.0, -0.6, -0.0, -0.0, -0.0, -0.0, -0.0, 1.0, 2.21, 2.8, 1.9, -0.0, -0.89, -2.12, -3.74, -5.24, -2.84, -0.71, -0.95, -2.6, -4.92, -6.8, -4.02, 0.0, 1.49, 0.85, 1.58, -0.0, -1.79, -2.24, -2.86, -2.41, 0.0, 3.58, 5.06, 4.07, 2.41, 0.0, 0.0, 0.0, 1.33, 1.33, 0.88, 1.05, 0.0, -2.49, -3.0, -2.82, -3.4, -5.29, -4.0, -2.19, -2.69, -3.68, -4.74, -4.47, -2.4, -2.54, -2.24, 4.02, 3.58, 3.58, -9.01, -9.01, -9.01, -9.21, -9.58, -9.58, -9.95, -9.86, -9.86, -10.23, -10.23, -9.94, -10.51, -10.23, -10.3, -9.77, -9.48, -8.24, -7.33, -6.58, -5.86, -5.32, -4.74, -3.61, -2.92, -1.79, -1.13, -1.16, -1.15, -1.71, -1.84, -0.61, -1.26, 0.0, 0.0, 0.0, 0.0, -0.0, -0.0, -0.0, -0.0, -0.0, 1.2, 1.9, 2.53, 2.84, 2.84, 2.21, 1.26, 0.0, -0.63, -0.8, 0.0, 1.6, 1.79, 0.0, -3.2, -4.6, -1.49, 0.0, 0.0, 0.0, 0.45, 0.45, 0.0, -2.6, -3.98, -2.68, 2.24, 2.98, 1.55, 0.0, 0.0, 0.0, 0.0, 1.84, 3.49, 4.54, 3.79, 4.11, 4.29, 2.82, 0.0, 0.0, -0.78, -1.27, -4.71, -3.11, -1.52, -0.94, -1.2, -3.58, -1.6, -1.2, 0.0, 1.98, 2.53, 2.53, -9.01, -9.01, -9.01, -9.58, -9.58, -9.58, -9.66, -9.86, -9.86, -10.23, -10.23, -9.94, -9.94, -10.01, -10.01, -10.06, -9.48, -8.58, -7.6, -6.31, -5.86, -5.32, -4.74, -3.5, -1.77, -0.59, -0.59, -1.14, -1.73, -2.37, -2.9, -2.89, -2.18, -1.58, -0.89, 0.0, 0.95, -0.0, 0.6, -0.0, -0.0, -0.0, 1.9, 1.9, 2.53, 2.53, 3.2, 2.8, 2.8, 2.8, 2.68, 2.68, 3.13, 3.13, 0.0, 0.0, 0.0, 0.0, 3.58, 3.58, 0.0, 0.0, 1.9, 2.24, 2.24, 0.0, -1.79, -2.21, -1.6, -0.85, -1.1, -3.7, -4.6, -2.82, 0.0, 3.58, 5.51, 5.82, 5.21, 4.89, 5.24, 3.91, 1.14, 0.0, 0.0, -0.88, -2.51, -0.66, -0.7, -0.73, -2.35, -4.29, -2.97, -1.9, 0.0, 1.33, 1.6, 1.6, -9.01, -9.01, -9.01, -9.58, -9.58, -9.3, -9.66, -9.86, -9.86, -9.86, -10.23, -9.94, -9.94, -9.66, -10.01, -9.46, -9.48, -8.58, -7.33, -6.06, -5.36, -5.28, -4.77, -2.87, -0.58, -0.58, -1.19, -1.79, -2.4, -3.61, -4.81, -4.76, -4.0, -3.47, -2.23, -0.95, -0.0, -0.0, -0.0, -0.0, -0.0, -0.0, 0.85, 1.0, 2.4, 2.8, 3.13, 3.13, 3.13, 3.13, 3.58, 4.02, 4.02, 4.02, 4.02, 2.84, 3.16, 5.36, 4.11, 3.79, 2.2, 2.0, 2.84, 3.58, 4.24, 1.79, 0.0, -2.68, -4.92, -6.88, -6.52, -6.08, -4.81, -3.51, -0.0, 2.5, 3.58, 4.46, 4.43, 3.63, 2.76, 0.0, -1.01, -2.28, -2.54, -1.41, -2.07, -0.76, -1.27, -2.82, -2.28, -1.72, -3.39, -2.24, 0.0, 0.7, 0.61, 0.61, -9.01, -9.01, -9.01, -9.58, -9.58, -9.3, -9.66, -9.66, -9.86, -9.86, -9.59, -9.94, -9.94, -9.66, -9.94, -9.27, -9.08, -8.53, -6.98, -5.64, -5.28, -6.36, -6.22, -4.87, -4.17, -3.58, -4.2, -4.91, -5.73, -6.0, -6.76, -6.56, -5.95, -5.36, -4.12, -2.79, -1.6, 0.0, 0.0, 0.0, 0.0, 0.0, 2.68, 1.79, 2.68, 2.68, 3.13, 3.58, 3.58, 3.58, 4.02, 4.47, 4.47, 4.47, 5.36, 5.51, 3.79, 0.0, 0.0, 0.0, 0.0, 0.0, 2.84, 2.17, 3.83, 2.8, 1.34, -1.61, -4.12, -5.59, -4.74, -3.17, -2.6, 0.0, 0.0, 1.58, 1.58, 0.87, 0.96, 0.96, -1.84, -3.4, -4.83, -5.28, -5.64, -5.49, -6.06, -3.14, -3.72, -2.79, -2.0, -0.67, -1.33, -2.12, -2.21, 0.0, 0.0, 0.0, -9.01, -9.01, -9.01, -9.37, -9.3, -9.3, -9.3, -9.66, -9.66, -9.86, -9.59, -9.94, -9.94, -9.66, -10.01, -9.08, -8.78, -8.73, -7.64, -6.79, -7.69, -8.79, -9.21, -9.4, -10.43, -10.18, -9.25, -9.42, -9.12, -8.53, -7.56, -6.93, -6.64, -5.72, -4.73, -4.02, -2.6, 0.0, 1.41, 0.96, 0.73, 1.23, 1.11, 1.27, 2.15, 3.6, 3.58, 3.58, 3.58, 3.58, 3.58, 4.02, 4.47, 4.92, 2.68, 3.82, 3.97, 1.55, 0.0, -2.0, -1.6, 0.0, 2.68, 3.35, 2.6, 2.23, 1.58, 0.8, 0.0, 0.82, 2.44, 3.23, 3.33, 1.87, -1.01, -5.21, -6.9, -6.01, -3.2, -1.98, -3.0, -4.26, -5.49, -5.21, -5.21, -5.06, -2.53, 1.9, -0.99, 0.0, -1.98, -1.76, -2.0, -2.17, -2.68, -0.99, 0.0, 0.0, -9.01, -9.01, -9.01, -9.08, -9.08, -9.3, -9.3, -9.66, -9.66, -9.66, -9.59, -9.59, -9.94, -9.66, -10.01, -9.08, -8.78, -9.02, -9.94, -10.9, -10.98, -11.39, -11.7, -11.67, -12.32, -12.01, -10.76, -10.44, -9.19, -7.27, -6.32, -6.01, -5.71, -5.38, -4.47, -3.85, -2.6, -0.82, 0.0, 1.72, 1.6, 2.29, 2.2, 1.72, 2.4, 3.48, 3.2, 3.2, 3.13, 3.13, 3.13, 3.82, 4.24, 4.47, 5.36, 2.98, 4.43, 4.43, -3.48, -2.68, -2.24, -0.0, 2.53, 2.53, 1.0, 1.74, 1.9, 2.68, 3.74, 6.44, 7.64, 7.54, 6.17, 2.58, -3.79, -9.36, -12.08, -10.79, -8.55, -5.37, -3.72, -4.16, -4.26, -3.2, -3.33, -2.07, 1.4, 3.32, 1.41, 1.49, -1.33, -2.48, -1.84, -2.63, -3.13, -3.13, 0.0, 0.0, -8.73, -8.73, -8.73, -8.73, -9.08, -9.08, -9.3, -9.3, -9.66, -9.37, -9.37, -9.37, -9.94, -9.66, -9.66, -9.42, -9.42, -10.01, -11.28, -12.27, -11.7, -10.43, -10.4, -10.75, -11.39, -10.11, -8.83, -7.32, -5.34, -3.79, -3.72, -4.07, -4.42, -4.12, -3.85, -3.22, -2.36, -1.07, 0.0, 0.78, 2.2, 2.47, 2.47, 2.47, 2.6, 2.3, 2.0, 2.53, 3.13, 3.13, 3.13, 4.02, 4.02, 4.47, 4.92, 5.51, 5.7, 7.6, -0.0, -1.0, -0.71, 0.71, 1.24, 1.26, 1.2, 2.21, 2.53, 2.6, 3.13, 3.58, 4.57, 7.13, 6.09, 2.82, -7.67, -12.66, -15.08, -14.54, -12.15, -9.36, -6.99, -4.74, -3.72, -2.47, -1.84, -0.81, 0.79, 0.7, -1.23, 0.0, -1.76, -2.48, -2.23, -3.07, -3.58, -3.58, 0.0, 0.0, -8.73, -8.73, -8.73, -8.73, -9.08, -9.08, -9.08, -9.3, -9.66, -9.37, -9.37, -9.37, -9.71, -9.42, -9.42, -10.01, -9.72, -10.36, -11.03, -11.39, -10.13, -7.96, -7.33, -8.24, -8.85, -8.81, -7.03, -5.11, -3.03, -2.11, -2.12, -2.12, -2.6, -2.84, -2.2, -2.4, -1.7, -0.54, 0.0, 0.72, 2.2, 2.8, 3.11, 2.47, 2.4, 2.53, 2.2, 2.53, 2.68, 3.13, 3.58, 3.58, 4.02, 4.47, 4.92, 5.36, 4.47, 4.82, 2.4, -0.0, -0.0, 0.71, 1.26, 2.12, 3.39, 4.24, 3.39, 2.0, 1.58, 1.6, 0.63, 0.0, 0.63, 0.0, -2.68, -9.62, -13.42, -14.94, -14.58, -13.15, -9.66, -6.99, -5.21, -3.79, -3.22, -2.2, -1.41, -2.48, -4.94, -5.13, -2.6, -2.48, -3.14, -3.53, -3.58, -3.2, -2.21, -2.21, -8.73, -8.73, -8.73, -8.73, -8.73, -9.08, -9.08, -9.08, -9.3, -9.37, -9.37, -9.37, -9.08, -9.08, -9.42, -9.72, -9.77, -10.4, -10.43, -10.13, -8.83, -7.8, -6.92, -6.92, -7.16, -7.53, -6.85, -5.96, -4.28, -3.63, -3.03, -2.46, -2.0, -2.12, -1.52, -1.52, -0.72, -0.59, 0.0, 0.59, 1.84, 1.98, 3.0, 3.11, 2.29, 2.2, 1.7, 2.0, 1.6, 3.6, 3.6, 3.6, 4.02, 4.02, 4.47, 4.47, 2.24, 2.0, -0.0, -0.0, 0.99, -0.0, 0.8, 2.97, 3.72, 4.77, 4.02, 5.36, 2.24, 0.0, -1.34, -2.99, -1.41, 0.0, -2.24, -3.58, -8.67, -11.62, -13.02, -13.47, -12.14, -9.42, -8.06, -7.03, -6.44, -5.72, -5.72, -7.06, -7.33, -3.43, -2.98, -2.4, -3.14, -3.82, -2.91, -2.15, -2.23, -2.23, -8.73, -8.73, -8.73, -8.73, -8.73, -8.73, -9.08, -9.08, -8.78, -9.12, -9.37, -9.37, -9.08, -9.42, -9.42, -9.72, -9.77, -9.8, -9.82, -9.5, -8.85, -8.18, -7.53, -6.88, -7.13, -6.22, -6.22, -5.96, -5.46, -4.77, -4.13, -2.99, -2.39, -1.87, -1.4, -0.73, -0.69, 0.0, 0.0, 0.57, 1.2, 1.93, 2.26, 2.12, 2.2, 1.41, 0.82, 1.47, 1.35, 2.2, 2.3, 3.48, 3.6, 3.2, 3.58, 3.58, 3.58, 0.95, -0.63, -2.68, 0.0, 0.0, 1.2, 2.21, 4.0, 4.34, 4.02, 4.47, 3.2, -0.89, -3.07, -4.36, -2.04, 0.0, 1.93, 1.18, 0.0, -3.07, -7.44, -11.03, -12.6, -11.76, -10.5, -9.66, -7.47, -7.06, -7.2, -7.2, -4.52, -3.74, -4.11, -2.54, -3.22, -3.84, -3.14, -2.79, -2.4, -2.4, -8.73, -8.73, -8.73, -8.73, -8.73, -8.73, -9.08, -8.78, -8.78, -9.12, -9.12, -9.12, -9.08, -9.42, -9.13, -9.46, -9.48, -9.5, -9.21, -9.21, -8.85, -8.85, -8.43, -7.76, -7.1, -6.43, -6.0, -5.8, -5.5, -5.32, -4.65, -4.17, -2.84, -2.35, -1.81, -1.18, -0.61, 0.0, 0.0, 0.58, 1.25, 1.25, 1.36, 1.49, 2.06, 1.45, 1.45, 1.36, 1.52, 1.41, 2.11, 2.2, 1.41, 2.53, 3.2, 3.58, 3.13, 2.24, 0.0, -1.79, -3.13, -2.53, 2.24, 2.23, 2.23, 3.39, 3.9, 3.47, -0.0, -0.89, -2.91, -4.43, -2.31, 0.0, 2.28, 4.75, 5.06, -0.95, -3.49, -7.76, -11.33, -12.56, -11.99, -10.05, -6.21, -4.73, -6.02, -3.82, -3.13, -4.02, -3.95, -3.2, -4.21, -3.55, -3.38, -2.51, -2.91, -2.91, -8.45, -8.45, -8.45, -8.45, -8.45, -8.73, -9.08, -8.78, -8.78, -8.78, -9.12, -8.82, -8.82, -9.42, -9.13, -9.46, -9.17, -9.19, -9.21, -8.86, -8.58, -8.85, -8.18, -7.76, -7.06, -6.4, -5.77, -5.32, -5.32, -4.65, -4.68, -4.02, -3.37, -3.53, -2.87, -2.35, -1.71, -1.1, -0.59, 0.0, 0.0, 0.0, 0.61, 1.32, 1.36, 1.36, 1.36, 0.71, 1.32, 1.36, 1.41, 1.35, 1.41, 1.33, 0.8, 1.2, 2.24, 2.24, 0.89, 0.0, -2.24, -3.39, 0.0, 1.79, 4.0, 2.0, 1.58, 0.95, -0.45, -1.34, -2.91, -3.84, -4.56, -2.23, 0.71, 3.95, 3.91, 0.73, -2.51, -6.0, -9.1, -11.72, -11.44, -9.6, -7.15, -6.64, -4.47, -3.47, -2.23, -3.47, -4.02, -4.11, -3.99, -4.5, -3.26, -3.15, -3.07, -3.07, -8.45, -8.45, -8.45, -8.45, -8.45, -8.45, -8.45, -8.78, -8.78, -8.78, -9.12, -8.82, -8.82, -8.53, -8.85, -8.85, -8.87, -8.87, -8.87, -8.59, -8.86, -8.2, -8.2, -7.53, -7.1, -6.4, -5.96, -5.28, -4.62, -4.13, -3.99, -3.34, -3.37, -2.87, -2.9, -2.35, -2.25, -1.71, -1.16, -0.59, -0.56, 0.0, 0.0, 0.65, 0.67, 1.32, 0.71, 0.69, 0.65, 0.67, 0.64, 0.67, 0.63, 0.66, 0.76, 0.6, 1.26, 1.34, 0.89, 0.89, -1.6, -2.6, -1.8, 2.68, 2.68, 4.92, -0.0, -0.0, -1.34, -1.79, -2.4, -2.84, -4.65, -4.36, -2.0, -1.36, -0.76, 0.0, -1.88, -4.24, -6.7, -10.24, -11.17, -8.22, -7.67, -7.6, -4.15, -2.53, -2.86, -3.58, -4.02, -4.73, -3.43, -4.83, -4.26, -3.33, -3.43, -3.43, -8.45, -8.45, -8.45, -8.19, -8.19, -8.19, -8.19, -8.52, -8.52, -8.78, -8.78, -8.82, -8.82, -8.53, -8.85, -8.85, -8.56, -8.58, -8.59, -8.87, -8.22, -7.95, -7.55, -7.55, -6.88, -6.22, -5.77, -5.28, -4.62, -3.96, -3.96, -3.47, -3.34, -2.84, -2.87, -2.35, -2.35, -1.81, -1.81, -1.22, -1.24, -0.59, 0.0, 0.0, 0.0, 1.36, 0.71, 0.0, 0.0, 0.0, 0.0, 0.0, 0.0, 0.0, 0.0, 0.0, 0.0, 0.0, 0.89, 1.34, 0.0, -1.2, 0.0, 1.79, 2.68, 2.4, 1.2, -0.0, -0.0, -1.79, -1.86, -2.0, -3.27, -5.3, -8.68, -7.97, -5.06, -2.53, -1.86, -2.8, -3.14, -9.57, -10.81, -8.56, -4.66, -3.22, -3.04, -3.6, -4.73, -4.92, -4.92, -4.88, -4.6, -4.74, -4.42, -3.99, -2.51, -2.51, -8.19, -8.19, -8.19, -8.19, -8.19, -8.19, -8.19, -8.19, -8.52, -8.52, -8.52, -8.22, -8.82, -8.53, -8.53, -8.85, -8.56, -8.58, -8.24, -8.23, -7.96, -7.83, -7.16, -6.9, -6.46, -6.46, -5.57, -5.11, -4.62, -3.96, -3.96, -3.44, -3.47, -2.96, -2.73, -2.33, -2.35, -1.79, -1.89, -1.81, -1.22, -1.24, -0.64, -0.67, 0.0, 0.0, 0.0, -0.71, -0.76, 0.0, 0.0, 0.0, 0.0, 0.0, 0.0, 0.0, 0.0, 0.0, 0.45, 0.89, 0.0, 0.0, 0.0, -0.0, 0.95, 1.26, 1.9, 0.0, 0.0, -2.24, -2.91, -3.07, -1.52, -2.41, -7.63, -9.8, -7.9, -3.48, -2.6, -1.58, -2.15, -7.87, -9.8, -10.12, -8.1, -3.33, -2.51, -3.97, -4.92, -6.26, -5.81, -4.47, -3.87, -3.78, -3.9, -3.4, -1.84, -1.84, -8.19, -8.19, -8.19, -8.19, -8.19, -8.19, -8.19, -8.19, -8.19, -8.52, -8.52, -8.52, -8.22, -8.24, -8.24, -8.24, -8.24, -7.96, -8.24, -7.96, -7.85, -7.32, -6.92, -6.92, -6.25, -6.25, -5.8, -5.14, -3.96, -4.1, -4.1, -3.96, -3.47, -3.5, -2.84, -2.33, -2.33, -2.35, -1.79, -1.89, -1.81, -1.3, -1.24, -1.29, -1.25, -1.95, -2.06, -0.67, 0.0, 0.0, 0.0, 0.0, 0.0, 0.0, 0.0, 0.0, 0.0, 0.0, 0.0, 1.34, -0.0, -0.0, -0.0, -0.0, -0.0, 0.32, -0.0, -0.89, -0.71, -2.21, -3.74, -3.82, -2.0, 0.0, -1.57, -6.47, -8.72, -5.76, -2.73, -1.84, -2.21, -4.46, -8.86, -9.8, -9.17, -7.26, -5.72, -3.43, -4.4, -4.02, -3.82, -3.07, -3.04, -1.49, -2.88, -1.63, -0.89, -0.89, -8.19, -8.19, -8.19, -8.19, -8.19, -8.19, -8.19, -8.19, -8.19, -8.19, -8.52, -8.22, -8.22, -8.24, -8.24, -8.24, -7.95, -8.24, -7.96, -7.6, -7.59, -7.19, -6.92, -6.92, -6.5, -6.5, -5.83, -5.17, -4.58, -3.99, -4.1, -3.96, -3.47, -3.5, -2.84, -2.84, -2.33, -2.23, -2.35, -1.79, -1.71, -1.81, -1.24, -1.75, -1.87, -2.58, -2.76, -1.32, 0.0, 0.0, 0.0, 0.0, 0.0, 0.0, 0.0, 0.0, 0.0, 0.0, 0.0, 0.0, -0.0, -0.0, -0.0, -0.0, 0.6, 1.2, 0.0, -1.79, -2.53, -2.41, -2.53, -3.13, -3.04, -1.01, 0.0, -2.37, -7.1, -7.26, -5.1, -3.69, -3.4, -2.95, -3.07, -7.22, -8.49, -8.83, -7.89, -6.34, -3.47, -4.11, -4.02, -2.21, 0.0, 0.0, -0.82, 0.0, 0.0, 0.0, -8.19, -8.19, -8.19, -8.19, -8.19, -8.19, -8.19, -8.19, -8.19, -8.19, -8.19, -8.22, -8.22, -8.22, -7.93, -8.24, -7.61, -7.61, -7.33, -7.6, -6.94, -6.94, -6.94, -6.27, -6.27, -6.27, -5.83, -5.83, -5.36, -4.75, -4.02, -3.5, -3.5, -3.5, -2.84, -2.84, -2.87, -2.87, -2.23, -2.35, -1.79, -1.81, -1.81, -1.73, -1.84, -1.97, -2.06, -1.36, -0.67, -0.65, -0.62, 0.0, 0.0, 0.0, 0.0, 0.0, 0.0, 0.0, 0.0, 0.0, -0.0, -0.0, -0.0, 0.6, 1.26, 1.49, 1.2, -0.89, -1.9, -1.49, -0.6, -1.34, -3.13, -4.11, -3.04, -1.59, -2.7, -2.86, -2.21, -2.11, -0.99, 0.0, 0.0, -2.09, -4.4, -6.58, -7.22, -6.96, -4.6, -3.97, -2.4, 0.0, 2.68, 1.13, 0.96, 0.95, 0.95, 0.95, -7.86, -7.86, -8.19, -8.19, -8.19, -8.19, -8.19, -8.19, -8.19, -8.19, -7.9, -7.6, -7.91, -7.91, -7.61, -7.61, -7.33, -7.61, -7.33, -6.96, -7.22, -6.94, -6.53, -6.53, -6.27, -6.27, -5.83, -5.83, -6.25, -5.14, -4.02, -3.37, -3.37, -3.37, -2.84, -2.99, -2.87, -2.87, -2.75, -2.35, -2.35, -2.25, -1.81, -1.81, -1.84, -1.93, -2.06, -1.97, -1.36, -1.4, -1.36, -1.32, -0.69, -0.72, 0.0, 0.0, 0.0, 0.0, 0.0, 0.0, 0.0, 0.0, 0.0, 1.79, 0.95, 0.8, 0.6, -0.0, 0.0, -0.89, 0.0, -1.34, -2.6, -7.02, -7.69, -3.95, 0.0, 0.61, 0.61, 0.95, 0.0, 0.0, 0.0, -1.28, -3.68, -5.29, -6.27, -7.29, -5.35, -4.44, -0.88, 1.0, 1.7, 2.21, 0.0, 0.95, 1.01, 1.01, -7.86, -7.86, -7.86, -7.86, -7.86, -8.19, -8.19, -8.19, -7.9, -7.9, -7.9, -7.6, -7.6, -7.6, -7.32, -7.61, -7.33, -7.33, -7.24, -6.96, -6.96, -6.7, -6.29, -6.53, -6.53, -5.83, -5.83, -5.83, -5.83, -5.14, -4.48, -4.17, -4.02, -3.5, -3.37, -2.84, -2.87, -2.87, -2.75, -2.9, -2.35, -2.25, -2.39, -1.81, -1.81, -1.93, -1.93, -1.97, -2.11, -2.17, -1.4, -1.44, -1.49, -1.55, -0.78, -0.82, -0.96, -1.27, 0.0, 0.0, 0.0, 0.0, 1.34, 1.34, 1.34, -0.0, -0.0, -0.0, -0.0, -0.95, -0.89, -1.34, -2.41, -5.95, -7.13, -4.0, 0.0, 4.36, 5.11, 3.23, 0.0, -1.84, -3.82, -4.28, -3.6, -4.38, -5.18, -4.43, -3.39, -0.83, 0.57, 1.61, 1.9, 1.9, 1.27, 0.0, 1.18, 1.18, -7.86, -7.86, -7.86, -7.86, -7.86, -7.59, -7.59, -7.59, -7.59, -7.9, -7.9, -7.6, -7.6, -7.6, -7.32, -7.32, -6.97, -6.97, -6.97, -6.96, -6.96, -6.96, -6.29, -6.29, -6.29, -5.86, -5.62, -5.62, -5.17, -5.17, -5.17, -4.68, -4.68, -4.02, -3.5, -3.37, -3.53, -2.87, -2.87, -2.9, -2.9, -2.39, -2.28, -1.81, -1.81, -1.89, -2.02, -2.7, -2.11, -2.28, -2.17, -2.23, -2.31, -1.65, -1.55, -1.63, -1.6, -1.7, -1.08, 0.0, 0.0, 0.0, 1.26, 1.2, 0.89, 0.0, 0.0, 0.63, 0.63, -0.0, -1.34, -1.34, -0.76, -0.82, -2.31, -1.6, 0.0, 2.25, 3.04, 0.69, -0.7, -2.61, -4.36, -5.32, -4.23, -3.07, -1.58, 0.0, 0.0, 0.61, 2.11, 2.48, 2.07, 1.4, 0.87, 1.19, 1.23, 1.23, -7.86, -7.86, -7.86, -7.59, -7.59, -7.59, -7.59, -7.59, -7.59, -7.59, -7.9, -7.6, -7.6, -7.6, -7.32, -7.32, -6.97, -6.97, -6.97, -6.7, -6.96, -6.56, -6.29, -6.29, -6.29, -5.86, -5.86, -5.62, -5.17, -5.17, -5.17, -5.17, -4.51, -4.51, -4.02, -3.5, -3.37, -3.53, -3.39, -3.57, -2.9, -2.93, -2.42, -1.6, -1.18, -1.81, -2.49, -2.82, -2.89, -2.97, -2.35, -2.23, -2.31, -2.18, -2.4, -2.26, -2.2, -2.29, -0.79, 0.0, 0.0, 0.0, -0.0, 0.95, 0.89, 2.24, 0.89, 1.2, 0.63, 0.95, -0.0, -0.0, 0.0, 1.0, 0.0, -2.31, -3.76, -3.73, -3.87, -4.12, -2.81, -2.59, -2.54, -2.99, 0.0, 0.0, 1.07, 0.7, 1.19, 1.3, 2.04, 2.11, 2.0, 1.66, 0.7, 0.0, 0.0, 0.0, -7.59, -7.59, -7.59, -7.59, -7.59, -7.59, -7.59, -7.59, -7.59, -7.59, -7.59, -7.3, -7.3, -7.6, -7.6, -7.32, -6.98, -6.97, -6.97, -6.97, -6.7, -6.56, -6.56, -6.29, -6.29, -5.86, -5.86, -5.86, -5.17, -5.17, -5.17, -4.51, -4.72, -4.72, -4.21, -4.21, -3.53, -3.53, -3.53, -3.39, -3.42, -2.93, -2.83, -1.67, -1.2, -1.89, -2.71, -3.39, -3.02, -3.11, -3.06, -2.9, -2.99, -2.18, -2.4, -2.26, -2.12, -2.04, -1.41, -0.79, 0.0, 0.0, 0.0, 0.63, 0.89, 0.0, 2.24, 0.63, 0.95, 1.34, 0.95, -0.0, 0.0, 0.0, 0.0, -0.76, -3.95, -7.12, -7.84, -6.92, -4.77, -2.47, -1.14, 0.0, 2.2, 2.3, 1.35, 1.3, 1.3, 1.3, 1.3, 1.35, 1.35, 1.6, 0.81, 0.0, 0.0, 0.0, -7.59, -7.59, -7.27, -7.27, -7.27, -7.59, -7.59, -7.59, -7.59, -7.59, -7.59, -7.3, -7.3, -7.6, -7.6, -7.32, -6.98, -6.98, -6.97, -6.97, -6.7, -6.7, -6.56, -6.56, -6.29, -5.86, -5.86, -5.86, -5.86, -5.17, -5.17, -4.51, -4.72, -4.54, -4.54, -4.05, -4.05, -3.53, -3.53, -3.39, -3.57, -3.61, -3.49, -2.86, -2.35, -2.6, -3.6, -4.01, -3.25, -2.97, -3.06, -2.9, -2.99, -2.82, -2.82, -2.9, -2.72, -1.88, -1.35, -1.41, -0.88, 0.0, 0.0, 0.0, 0.0, 0.0, 0.0, -0.0, 0.95, 1.34, 1.34, -0.63, -2.68, -2.95, -1.07, 1.5, 0.73, -2.35, -5.4, -6.27, -4.92, -2.47, 0.0, 2.8, 2.73, 2.04, 1.93, 2.12, 1.36, 1.36, 1.3, 0.61, 0.67, 0.79, 0.0, 0.0, 0.0, 0.0, -7.27, -7.27, -7.27, -7.27, -7.27, -7.27, -7.59, -7.59, -7.59, -7.59, -7.59, -7.3, -7.3, -7.6, -7.6, -7.32, -7.32, -6.98, -6.97, -6.97, -6.97, -6.7, -6.31, -6.31, -6.31, -6.31, -5.64, -5.64, -5.64, -5.2, -5.2, -5.2, -4.72, -4.54, -4.54, -4.05, -4.05, -4.05, -3.72, -3.57, -3.57, -3.42, -3.45, -3.97, -4.63, -4.81, -4.01, -3.49, -2.44, -3.15, -2.9, -2.9, -2.75, -2.82, -2.82, -2.66, -2.72, -2.04, -2.11, -1.55, -1.83, -1.08, 0.0, 0.0, 0.0, 0.0, 0.0, 0.0, 0.95, 1.34, 1.34, -1.34, -3.13, -4.0, -1.8, 0.0, 2.25, 0.0, -2.47, -4.34, -2.8, 0.0, 1.35, 2.9, 2.6, 2.0, 1.4, 1.4, 1.49, 1.4, 0.69, 0.72, 0.0, 0.0, 0.0, 0.0, 0.0, 0.0, -7.27, -7.27, -7.27, -7.27, -7.27, -7.27, -7.27, -7.59, -7.59, -7.59, -7.59, -7.3, -7.3, -7.6, -7.6, -7.32, -7.32, -6.98, -7.26, -6.97, -6.97, -6.97, -6.7, -6.31, -6.31, -6.31, -6.31, -5.64, -5.64, -5.64, -5.2, -5.2, -4.72, -4.54, -4.54, -4.26, -4.26, -4.08, -4.08, -3.57, -3.57, -3.42, -3.61, -4.12, -4.76, -4.84, -3.02, -2.31, -2.26, -2.26, -2.18, -2.99, -2.99, -3.6, -3.4, -2.82, -2.72, -2.8, -2.29, -2.4, -1.7, -1.83, -1.27, 0.0, 0.0, 0.0, 0.0, 0.0, 1.79, 1.7, 0.63, -1.79, -3.13, -3.82, -3.6, -3.91, -2.23, -0.75, 0.0, 0.0, 0.65, 1.8, 3.51, 3.46, 2.82, 1.54, 1.36, 0.71, 0.71, 0.71, 0.71, 0.0, 0.0, 0.0, -1.05, -1.2, -1.2, -1.2, -7.59, -7.59, -7.27, -7.27, -7.27, -7.27, -7.27, -7.27, -7.59, -7.59, -7.59, -7.59, -7.3, -7.6, -7.6, -7.32, -7.32, -7.32, -6.98, -6.97, -6.97, -6.97, -6.97, -6.31, -6.31, -6.31, -6.31, -5.89, -5.89, -5.64, -5.2, -5.2, -4.54, -4.54, -4.54, -4.26, -4.08, -4.08, -4.08, -3.57, -3.42, -3.42, -3.42, -3.61, -3.77, -3.53, -2.82, -1.91, -2.0, -2.06, -2.26, -2.26, -3.09, -2.82, -3.4, -3.4, -2.9, -3.0, -2.8, -2.29, -2.4, -1.7, -2.2, -2.0, 0.0, 0.0, 2.21, 2.24, 1.79, 1.2, -0.0, -1.7, -3.13, -3.97, -6.28, -6.32, -4.71, -1.54, 0.0, 2.9, 6.05, 7.67, 7.16, 4.79, 2.87, 2.1, 1.4, 0.67, 0.0, 0.0, 0.0, 0.0, 0.0, -0.89, -0.99, -2.17, -2.17, -2.17, -7.59, -7.59, -7.27, -7.27, -7.27, -7.27, -7.27, -7.27, -7.59, -7.59, -7.59, -7.59, -7.3, -7.6, -7.6, -7.6, -7.32, -7.32, -7.32, -6.97, -6.97, -6.97, -6.97, -6.97, -6.31, -6.31, -6.31, -6.31, -5.89, -5.89, -5.89, -5.23, -5.0, -4.76, -4.76, -4.26, -4.08, -4.08, -3.91, -3.42, -3.61, -3.61, -3.61, -3.61, -3.25, -3.25, -2.7, -2.58, -1.91, -1.95, -1.88, -1.32, -2.12, -2.26, -3.09, -3.4, -3.47, -2.72, -2.8, -3.11, -2.29, -2.4, -1.99, -2.0, 0.0, 0.0, 2.21, 1.34, 1.79, 1.2, -0.0, -1.79, -3.13, -5.09, -5.6, -3.84, -2.0, 0.0, 0.74, 5.48, 10.43, 11.38, 8.68, 5.23, 3.01, 2.19, 1.43, 0.71, 0.0, 0.0, 0.0, -0.69, -1.55, -1.84, -2.06, -2.98, -2.98, -2.98, -7.59, -7.59, -7.59, -7.27, -7.27, -7.27, -7.27, -7.59, -7.59, -7.59, -7.59, -7.59, -7.3, -7.6, -7.6, -7.6, -7.32, -7.32, -7.32, -6.98, -6.97, -6.97, -6.97, -6.97, -6.58, -6.58, -6.31, -6.31, -5.89, -5.89, -5.89, -5.23, -5.23, -5.23, -4.76, -4.57, -4.08, -4.08, -3.91, -3.61, -3.61, -3.61, -3.61, -3.25, -3.25, -2.82, -2.7, -2.58, -2.63, -1.91, -1.95, -1.28, -1.32, -1.45, -2.26, -3.47, -3.47, -3.47, -3.26, -2.8, -2.88, -2.29, -2.4, -1.83, -1.8, 0.0, 0.0, 1.34, 1.34, 0.63, -0.95, -2.24, -2.68, -3.51, -2.8, -0.85, 0.0, 0.84, 2.39, 6.31, 10.43, 10.35, 7.28, 4.47, 3.71, 2.19, 1.45, 0.68, 0.0, 0.0, -1.01, -1.35, -1.72, -2.51, -2.99, -2.99, -2.99, -2.99, -7.59, -7.59, -7.59, -7.59, -7.59, -7.27, -7.27, -7.59, -7.59, -7.59, -7.59, -7.59, -7.59, -7.3, -7.6, -7.6, -7.6, -7.32, -7.32, -6.98, -6.98, -6.71, -6.71, -6.71, -6.58, -6.58, -6.58, -6.31, -5.89, -5.89, -5.67, -5.67, -5.23, -5.23, -4.76, -4.57, -4.08, -4.08, -3.91, -4.12, -3.61, -3.61, -3.07, -3.11, -3.11, -2.7, -2.7, -2.76, -2.63, -2.63, -2.06, -2.12, -1.88, -1.32, -3.0, -3.47, -3.47, -3.47, -3.26, -3.55, -2.8, -2.88, -2.11, -2.2, -1.66, 0.0, 0.0, 0.0, 0.0, 0.0, -1.79, -2.24, -2.24, -2.24, -2.24, 1.58, 0.99, 1.98, 4.56, 7.07, 7.97, 7.11, 6.42, 6.77, 6.24, 2.97, 0.0, -0.7, -0.74, -0.67, -1.23, -1.35, -2.11, -2.47, -2.64, -3.33, -3.33, -3.33, -7.59, -7.59, -7.59, -7.59, -7.59, -7.59, -7.59, -7.59, -7.59, -7.59, -7.59, -7.59, -7.59, -7.3, -7.3, -7.6, -7.6, -7.6, -7.32, -6.98, -6.98, -6.98, -6.71, -6.71, -6.33, -6.33, -6.33, -6.33, -5.92, -5.67, -5.67, -5.23, -5.23, -5.23, -4.57, -4.57, -4.57, -4.12, -4.12, -4.12, -3.61, -3.45, -3.45, -3.11, -3.11, -2.7, -2.76, -2.76, -2.63, -2.63, -2.69, -2.69, -2.0, -2.06, -2.12, -3.0, -3.55, -3.55, -3.55, -3.32, -3.32, -2.88, -2.66, -2.2, -1.66, -2.0, 0.0, 0.0, 0.0, 0.0, -0.0, -0.95, -1.26, -0.8, -0.0, 0.0, 0.0, 2.21, 4.84, 6.07, 4.95, 4.58, 7.08, 9.65, 8.09, 3.71, 0.75, -0.78, -0.67, -0.67, -1.23, -2.0, -2.2, -3.22, -3.11, -3.33, -3.33, -3.33, -7.59, -7.59, -7.59, -7.59, -7.59, -7.59, -7.59, -7.59, -7.59, -7.59, -7.59, -7.59, -7.59, -7.59, -7.3, -7.3, -7.6, -7.6, -6.98, -6.98, -6.98, -6.98, -6.98, -6.33, -6.33, -6.33, -6.33, -6.33, -5.92, -5.92, -5.92, -5.48, -5.26, -5.26, -4.8, -4.8, -4.8, -4.12, -4.12, -4.12, -4.12, -3.45, -3.45, -3.65, -3.11, -3.31, -3.16, -2.76, -2.63, -2.63, -2.69, -2.69, -2.75, -2.6, -2.12, -3.0, -2.8, -3.32, -3.32, -3.32, -3.32, -3.38, -2.66, -2.73, -2.3, -1.8, 0.0, 0.0, 0.0, 0.0, 0.0, 0.0, -1.26, -1.26, -0.8, 0.0, 2.24, 2.24, 3.07, 3.83, 3.22, 4.46, 6.97, 8.36, 6.42, 3.53, -0.81, -1.33, -0.66, -0.67, -0.64, -1.35, -2.48, -2.98, -2.98, -3.64, -3.64, -3.64, -7.59, -7.59, -7.59, -7.59, -7.59, -7.59, -7.59, -7.59, -7.59, -7.59, -7.59, -7.59, -7.59, -7.59, -7.3, -7.3, -7.3, -6.98, -6.98, -6.98, -6.98, -6.98, -6.61, -6.61, -6.61, -6.33, -6.33, -6.33, -5.92, -5.92, -5.69, -5.26, -5.26, -5.26, -4.8, -4.6, -4.6, -4.12, -4.12, -4.12, -4.12, -3.45, -3.65, -3.65, -3.65, -3.16, -3.16, -3.21, -3.21, -3.44, -3.27, -3.27, -3.51, -2.6, -2.66, -2.72, -3.0, -2.8, -3.08, -3.08, -3.38, -3.38, -3.12, -2.98, -2.73, -2.48, -2.53, 0.0, 0.0, 0.0, 0.0, 0.0, 0.0, -1.26, -0.99, -0.57, -0.0, 1.26, 1.79, 2.15, 2.51, 3.79, 4.36, 4.6, 3.1, 0.74, 0.0, -2.15, -1.88, -1.76, -1.36, -1.93, -2.66, -3.07, -3.43, -3.72, -3.72, -3.72, -7.59, -7.59, -7.59, -7.59, -7.59, -7.59, -7.59, -7.59, -7.59, -7.59, -7.59, -7.59, -7.59, -7.59, -7.59, -7.3, -6.98, -6.98, -6.98, -6.98, -6.7, -6.98, -6.61, -6.61, -6.61, -6.34, -6.34, -5.95, -5.69, -5.69, -5.26, -5.26, -5.26, -4.6, -4.6, -4.6, -4.12, -4.12, -4.12, -4.12, -4.35, -3.65, -3.65, -3.65, -3.49, -3.7, -3.52, -3.21, -3.21, -3.27, -3.27, -3.51, -3.51, -3.33, -3.4, -3.4, -2.9, -3.0, -3.64, -3.38, -3.38, -3.38, -3.12, -3.43, -3.43, -3.07, -3.6, -2.8, -1.79, -1.2, -1.2, -0.95, 0.0, 0.0, -0.57, -0.0, -0.0, 1.24, 1.2, 1.6, 1.88, 2.53, 2.79, 1.58, 0.0, 0.0, 0.0, -2.15, -2.4, -2.79, -2.66, -3.4, -3.64, -3.48, -3.16, -3.79, -3.79, -3.79, -7.59, -7.59, -7.59, -7.59, -7.59, -7.59, -7.59, -7.59, -7.59, -7.59, -7.59, -7.27, -7.59, -7.59, -7.59, -7.28, -6.98, -6.98, -6.98, -6.98, -6.98, -6.34, -6.34, -6.34, -6.34, -5.95, -5.95, -5.95, -5.95, -5.95, -5.52, -5.52, -5.04, -4.6, -4.6, -4.6, -4.12, -4.12, -4.12, -4.35, -3.82, -3.82, -3.65, -3.65, -3.87, -3.7, -3.52, -3.75, -3.05, -3.27, -3.27, -3.51, -3.33, -3.85, -3.33, -3.4, -3.69, -3.47, -3.55, -3.64, -3.38, -3.38, -4.11, -4.11, -3.72, -4.11, -3.72, -3.39, -2.24, -2.6, -2.4, -2.4, -2.68, -2.4, -1.58, -0.0, -0.0, 0.71, 0.63, 0.89, 1.26, 1.88, 2.07, -0.82, -1.5, -1.5, -0.93, -2.2, -3.04, -3.07, -3.48, -3.97, -3.64, -3.16, -3.14, -3.49, -3.49, -3.49, -7.59, -7.59, -7.59, -7.59, -7.59, -7.59, -7.59, -7.59, -7.27, -7.27, -7.27, -7.27, -7.27, -6.97, -7.28, -7.28, -7.28, -6.98, -6.98, -6.98, -6.63, -6.63, -6.34, -6.34, -5.95, -5.95, -5.95, -5.95, -5.95, -5.52, -5.29, -5.29, -5.29, -4.84, -4.6, -4.6, -4.12, -4.12, -4.35, -4.35, -4.35, -3.65, -3.65, -3.65, -3.87, -3.7, -3.52, -3.75, -3.56, -3.8, -3.27, -3.8, -3.85, -3.85, -3.64, -3.91, -3.91, -4.22, -3.47, -3.55, -3.64, -4.43, -4.43, -4.43, -4.43, -4.81, -4.84, -4.8, -2.6, -2.68, -3.04, -3.2, -3.51, -2.68, -2.24, -0.8, -0.0, -0.0, 0.0, 0.0, 0.0, 0.57, 0.0, 0.0, 0.0, 0.0, -0.89, -3.2, -3.58, -3.39, -3.16, -4.29, -3.77, -3.35, -3.49, -3.49, -3.49, -3.49, -7.59, -7.59, -7.59, -7.59, -7.59, -7.59, -7.59, -7.27, -7.27, -7.27, -7.27, -7.27, -6.97, -6.97, -6.97, -6.97, -6.97, -6.98, -6.98, -6.63, -6.63, -6.63, -6.63, -5.95, -5.95, -5.95, -5.95, -5.7, -5.29, -5.29, -5.29, -5.29, -4.84, -4.84, -4.84, -4.84, -4.35, -4.35, -4.35, -4.35, -4.16, -3.65, -3.65, -3.65, -3.7, -3.7, -3.52, -3.75, -3.56, -3.56, -3.8, -3.6, -3.85, -3.64, -3.64, -3.64, -3.91, -3.91, -4.22, -4.29, -4.02, -4.36, -4.43, -4.43, -4.74, -4.74, -5.46, -4.84, -3.04, -2.6, -3.13, -2.4, -2.8, -2.8, -2.17, -2.12, -1.58, -2.12, -2.24, -1.2, -0.89, -0.63, 0.0, 0.0, 0.78, 0.0, 0.0, -2.4, -3.58, -3.82, -4.46, -4.83, -3.99, -3.22, -3.48, -3.48, -3.48, -3.48, -7.27, -7.27, -7.27, -7.59, -7.59, -7.27, -7.27, -7.27, -7.27, -7.27, -6.97, -6.97, -6.97, -6.97, -6.97, -6.97, -6.97, -6.97, -6.35, -6.35, -6.35, -6.63, -6.63, -6.24, -5.95, -5.7, -5.7, -5.7, -5.29, -5.29, -5.29, -5.29, -5.29, -4.84, -4.84, -4.84, -4.84, -4.16, -4.16, -4.16, -4.16, -4.16, -4.16, -3.65, -3.7, -3.7, -3.75, -3.75, -3.56, -3.56, -3.6, -3.6, -3.85, -3.64, -4.08, -4.08, -4.36, -4.36, -4.36, -4.39, -4.71, -4.29, -4.36, -4.74, -4.74, -5.09, -5.09, -5.46, -5.75, -3.9, -1.9, -0.0, -1.58, -2.5, -1.86, -1.6, -2.12, -2.63, -3.13, -2.68, -2.24, -1.9, -1.27, -0.74, 0.0, 0.0, 0.0, -0.73, -3.07, -4.02, -4.93, -5.06, -3.55, -3.0, -3.35, -4.65, -4.65, -4.65, -7.27, -7.27, -7.27, -7.27, -7.27, -7.27, -7.27, -7.27, -7.27, -6.97, -6.97, -6.97, -6.97, -6.97, -6.97, -6.97, -6.97, -6.64, -6.64, -6.35, -6.35, -6.35, -6.35, -5.98, -5.98, -5.7, -5.7, -5.7, -5.29, -5.29, -5.29, -5.29, -5.29, -4.84, -4.84, -4.84, -4.84, -4.63, -4.16, -4.16, -4.16, -4.16, -4.16, -4.2, -4.2, -3.7, -3.75, -4.24, -4.03, -4.28, -4.05, -4.32, -4.32, -4.08, -4.08, -4.36, -4.36, -4.36, -4.36, -5.05, -4.39, -4.71, -4.71, -5.06, -5.43, -5.43, -5.43, -5.82, -5.82, -4.34, -2.4, -2.24, -1.26, -1.88, -1.61, -1.26, -1.7, -2.63, -3.07, -3.07, -3.13, -2.91, -3.14, -2.66, -1.49, -0.8, -0.74, 0.0, -2.21, -3.13, -3.97, -3.6, -3.79, -3.97, -3.91, -2.84, -2.84, -2.84, -7.55, -7.55, -7.27, -7.27, -7.27, -7.27, -7.27, -7.27, -6.97, -6.97, -6.97, -6.97, -6.97, -6.97, -6.97, -6.97, -6.64, -6.64, -6.64, -6.64, -6.35, -6.35, -6.35, -5.98, -5.98, -5.98, -5.98, -5.7, -5.29, -5.29, -5.29, -5.29, -5.29, -4.84, -4.84, -4.63, -4.63, -4.63, -4.63, -4.16, -4.16, -4.16, -4.2, -4.2, -4.2, -4.2, -4.24, -4.24, -4.03, -4.28, -4.05, -4.32, -4.32, -4.08, -4.08, -4.47, -4.75, -4.75, -4.75, -5.05, -4.75, -4.75, -5.06, -4.71, -5.06, -5.06, -5.06, -5.72, -6.4, -5.2, -3.9, -2.54, -1.79, -1.9, -2.53, -2.8, -2.6, -2.6, -3.07, -3.51, -3.13, -3.13, -3.45, -3.72, -3.15, -1.68, -0.94, 0.0, 0.0, -1.98, -2.68, -3.09, -3.14, -2.98, -2.07, 0.0, 0.0, 0.0, -7.55, -7.55, -7.55, -7.55, -7.27, -7.27, -6.97, -6.97, -6.97, -6.97, -6.97, -6.97, -6.97, -6.97, -6.97, -6.97, -6.64, -6.64, -6.64, -6.64, -6.64, -6.35, -5.98, -5.98, -5.98, -5.98, -5.98, -5.98, -5.56, -5.29, -5.29, -5.29, -5.29, -5.29, -4.63, -4.63, -4.63, -4.63, -4.63, -4.63, -4.16, -4.2, -4.2, -4.2, -4.2, -4.0, -4.24, -4.24, -4.03, -4.28, -4.05, -4.73, -4.73, -4.73, -4.47, -4.47, -4.75, -4.75, -4.75, -5.05, -5.05, -5.05, -4.75, -5.06, -5.06, -5.06, -5.38, -5.72, -6.44, -6.4, -5.86, -2.6, -2.12, -2.24, -2.5, -3.83, -3.32, -2.4, -2.15, -2.91, -3.07, -3.13, -3.6, -4.01, -4.2, -2.71, -2.0, 0.0, 0.0, 0.0, -2.2, -3.07, -2.91, -1.88, 0.0, 1.13, 1.13, 1.13, -7.23, -7.23, -7.23, -7.55, -7.55, -6.97, -6.97, -6.97, -6.97, -6.97, -6.97, -6.97, -6.67, -6.67, -6.67, -6.35, -6.35, -6.35, -6.35, -6.35, -6.35, -6.64, -6.35, -5.98, -5.98, -5.98, -5.98, -5.98, -5.98, -5.56, -5.56, -5.56, -5.32, -5.32, -4.63, -4.63, -4.63, -4.63, -4.63, -4.63, -4.66, -4.66, -4.2, -4.2, -4.2, -4.0, -4.24, -4.24, -4.03, -4.71, -4.71, -4.73, -4.73, -4.73, -4.73, -4.73, -5.03, -5.08, -5.08, -5.37, -5.37, -5.37, -5.37, -5.37, -5.68, -5.68, -5.68, -5.72, -6.44, -6.44, -6.0, -2.6, -2.12, 0.0, -2.24, -2.5, -3.22, -1.24, -1.9, -2.91, -3.32, -3.58, -4.24, -4.81, -4.0, -2.71, -0.97, 0.0, 0.0, 0.0, 0.0, -2.8, -3.2, 0.0, 1.13, 1.19, 1.19, 1.19, -7.23, -7.23, -7.23, -6.95, -6.95, -6.95, -7.27, -6.97, -6.97, -6.97, -6.67, -6.67, -6.67, -6.67, -6.67, -6.35, -6.35, -6.35, -6.35, -6.35, -6.35, -6.35, -6.35, -5.98, -5.98, -5.98, -5.98, -5.98, -5.98, -5.56, -5.32, -5.32, -5.32, -5.32, -5.32, -4.63, -4.63, -4.63, -4.63, -4.66, -4.66, -4.66, -4.66, -4.66, -4.66, -4.44, -4.69, -4.69, -4.69, -4.71, -4.71, -4.73, -5.1, -5.1, -5.1, -5.1, -5.38, -5.38, -5.08, -5.37, -5.37, -5.37, -5.37, -5.37, -5.37, -5.68, -5.68, -6.35, -6.7, -6.64, -6.0, -4.66, -3.6, -1.8, 0.0, -2.0, -1.88, -1.2, -1.9, -2.91, -3.97, -4.02, -5.16, -5.46, -5.1, -2.71, -0.97, 0.0, 0.0, 0.0, 0.0, 0.0, 0.0, 1.19, 1.05, 1.23, 1.23, 1.23, -7.23, -7.23, -7.23, -6.95, -6.95, -6.95, -7.27, -6.97, -6.97, -6.97, -6.67, -6.67, -6.67, -6.67, -6.67, -6.35, -6.35, -6.35, -6.35, -6.35, -6.35, -6.35, -6.35, -5.98, -5.98, -5.98, -5.98, -5.98, -5.98, -5.56, -5.32, -5.32, -5.32, -5.32, -5.32, -4.63, -4.63, -4.63, -4.63, -4.66, -4.66, -4.66, -4.66, -4.66, -4.66, -4.44, -4.69, -4.69, -4.69, -4.71, -4.71, -4.73, -5.1, -5.1, -5.1, -5.1, -5.38, -5.38, -5.08, -5.37, -5.37, -5.37, -5.37, -5.37, -5.37, -5.68, -5.68, -6.35, -6.7, -6.64, -6.0, -4.66, -3.6, -1.8, 0.0, -2.0, -1.88, -1.2, -1.9, -2.91, -3.97, -4.47, -5.16, -6.4, -5.24, -3.63, -1.84, 0.0, 0.0, 0.0, 1.09, 2.28, 2.33, 2.4, 1.18, 0.0, 0.0, 0.0]}]